Wetterdaten: Dienstag, 20.10.2020
Datum Zeit Temp. Aussen Temp. o. S. Temp +5cm Feuchte Auss Luftdruck Regen Sonnenschein Regendauer Solar Windben Empfang
20.10.2020 00:00 7,9 C 7,2 C 6,1 C 87 % 1015,4 hPa 0,0 l/m 0 min 0 min 0 W/m 19,3 km/h (3 Bft) 97,87 %
20.10.2020 00:02 7,9 C 7,2 C 6,1 C 87 % 1015,3 hPa 0,0 l/m 0 min 0 min 0 W/m 16,1 km/h (3 Bft) 95,35 %
20.10.2020 00:04 7,9 C 7,2 C 6,1 C 87 % 1015,3 hPa 0,0 l/m 0 min 0 min 0 W/m 22,5 km/h (4 Bft) 97,62 %
20.10.2020 00:08 7,9 C 7,2 C 6,1 C 87 % 1015,3 hPa 0,0 l/m 0 min 0 min 0 W/m 16,1 km/h (3 Bft) 97,92 %
20.10.2020 00:10 8,0 C 7,2 C 6,1 C 87 % 1015,3 hPa 0,0 l/m 0 min 0 min 0 W/m 19,3 km/h (3 Bft) 97,87 %
20.10.2020 00:12 8,0 C 7,2 C 6,1 C 87 % 1015,3 hPa 0,0 l/m 0 min 0 min 0 W/m 16,1 km/h (3 Bft) 95,83 %
20.10.2020 00:14 8,0 C 7,2 C 6,1 C 87 % 1015,3 hPa 0,0 l/m 0 min 0 min 0 W/m 22,5 km/h (4 Bft) 97,92 %
20.10.2020 00:16 8,0 C 7,8 C 6,1 C 87 % 1015,3 hPa 0,0 l/m 0 min 0 min 0 W/m 22,5 km/h (4 Bft) 95,74 %
20.10.2020 00:18 8,0 C 7,8 C 6,1 C 87 % 1015,3 hPa 0,0 l/m 0 min 0 min 0 W/m 16,1 km/h (3 Bft) 97,87 %
20.10.2020 00:20 8,0 C 7,2 C 6,1 C 87 % 1015,3 hPa 0,0 l/m 0 min 0 min 0 W/m 16,1 km/h (3 Bft) 95,12 %
20.10.2020 00:22 8,0 C 7,8 C 6,1 C 87 % 1015,2 hPa 0,0 l/m 0 min 0 min 0 W/m 25,7 km/h (4 Bft) 95,74 %
20.10.2020 00:24 8,0 C 7,2 C 6,1 C 87 % 1015,2 hPa 0,0 l/m 0 min 0 min 0 W/m 19,3 km/h (3 Bft) 97,92 %
20.10.2020 00:26 8,0 C 7,8 C 6,1 C 87 % 1015,2 hPa 0,0 l/m 0 min 0 min 0 W/m 19,3 km/h (3 Bft) 95,83 %
20.10.2020 00:28 8,1 C 7,2 C 6,1 C 87 % 1015,1 hPa 0,0 l/m 0 min 0 min 0 W/m 25,7 km/h (4 Bft) 95,83 %
20.10.2020 00:30 8,1 C 7,2 C 6,1 C 86 % 1015,0 hPa 0,0 l/m 0 min 0 min 0 W/m 19,3 km/h (3 Bft) 93,75 %
20.10.2020 00:32 8,1 C 7,2 C 6,1 C 86 % 1015,1 hPa 0,0 l/m 0 min 0 min 0 W/m 19,3 km/h (3 Bft) 95,83 %
20.10.2020 00:34 8,1 C 7,2 C 6,1 C 86 % 1015,0 hPa 0,0 l/m 0 min 0 min 0 W/m 19,3 km/h (3 Bft) 93,62 %
20.10.2020 00:36 8,1 C 7,2 C 6,1 C 86 % 1015,0 hPa 0,0 l/m 0 min 0 min 0 W/m 16,1 km/h (3 Bft) 95,74 %
20.10.2020 00:38 8,1 C 7,2 C 6,1 C 86 % 1014,9 hPa 0,0 l/m 0 min 0 min 0 W/m 25,7 km/h (4 Bft) 97,56 %
20.10.2020 00:40 8,1 C 7,2 C 6,1 C 86 % 1014,9 hPa 0,0 l/m 0 min 0 min 0 W/m 16,1 km/h (3 Bft) 95,83 %
20.10.2020 00:42 8,1 C 7,2 C 6,1 C 86 % 1014,8 hPa 0,0 l/m 0 min 0 min 0 W/m 12,9 km/h (3 Bft) 95,83 %
20.10.2020 00:44 8,1 C 7,2 C 6,1 C 86 % 1014,8 hPa 0,0 l/m 0 min 0 min 0 W/m 22,5 km/h (4 Bft) 97,87 %
20.10.2020 00:46 8,1 C 7,2 C 6,1 C 86 % 1014,8 hPa 0,0 l/m 0 min 0 min 0 W/m 12,9 km/h (3 Bft) 97,92 %
20.10.2020 00:48 8,1 C 7,2 C 6,1 C 86 % 1014,8 hPa 0,0 l/m 0 min 0 min 0 W/m 29,0 km/h (5 Bft) 97,92 %
20.10.2020 00:50 8,1 C 7,2 C 6,1 C 85 % 1014,9 hPa 0,0 l/m 0 min 0 min 0 W/m 19,3 km/h (3 Bft) 95,83 %
20.10.2020 00:52 8,1 C 7,2 C 6,1 C 85 % 1014,8 hPa 0,0 l/m 0 min 0 min 0 W/m 16,1 km/h (3 Bft) 97,87 %
20.10.2020 00:54 8,1 C 7,8 C 6,1 C 85 % 1014,7 hPa 0,0 l/m 0 min 0 min 0 W/m 16,1 km/h (3 Bft) 97,83 %
20.10.2020 00:56 8,1 C 7,2 C 6,1 C 85 % 1014,7 hPa 0,0 l/m 0 min 0 min 0 W/m 19,3 km/h (3 Bft) 97,62 %
20.10.2020 00:58 8,1 C 7,2 C 6,1 C 85 % 1014,8 hPa 0,0 l/m 0 min 0 min 0 W/m 19,3 km/h (3 Bft) 97,96 %
20.10.2020 01:00 8,1 C 7,2 C 6,1 C 85 % 1014,8 hPa 0,0 l/m 0 min 0 min 0 W/m 22,5 km/h (4 Bft) 97,92 %
20.10.2020 01:02 8,1 C 7,8 C 6,1 C 85 % 1014,8 hPa 0,0 l/m 0 min 0 min 0 W/m 32,2 km/h (5 Bft) 98,00 %
20.10.2020 01:04 8,1 C 7,8 C 6,1 C 85 % 1014,7 hPa 0,0 l/m 0 min 0 min 0 W/m 16,1 km/h (3 Bft) 95,65 %
20.10.2020 01:06 8,1 C 7,8 C 6,1 C 85 % 1014,8 hPa 0,0 l/m 0 min 0 min 0 W/m 19,3 km/h (3 Bft) 97,87 %
20.10.2020 01:08 8,1 C 7,8 C 6,1 C 85 % 1014,8 hPa 0,0 l/m 0 min 0 min 0 W/m 22,5 km/h (4 Bft) 97,87 %
20.10.2020 01:10 8,1 C 7,2 C 6,1 C 85 % 1014,8 hPa 0,0 l/m 0 min 0 min 0 W/m 19,3 km/h (3 Bft) 97,87 %
20.10.2020 01:12 8,1 C 7,2 C 6,1 C 85 % 1014,8 hPa 0,0 l/m 0 min 0 min 0 W/m 19,3 km/h (3 Bft) 100,00 %
20.10.2020 01:14 8,1 C 7,2 C 6,1 C 85 % 1014,8 hPa 0,0 l/m 0 min 0 min 0 W/m 22,5 km/h (4 Bft) 100,00 %
20.10.2020 01:16 8,1 C 7,2 C 6,1 C 85 % 1014,7 hPa 0,0 l/m 0 min 0 min 0 W/m 25,7 km/h (4 Bft) 100,00 %
20.10.2020 01:18 8,1 C 7,2 C 6,1 C 85 % 1014,7 hPa 0,0 l/m 0 min 0 min 0 W/m 19,3 km/h (3 Bft) 100,00 %
20.10.2020 01:20 8,1 C 7,2 C 6,1 C 85 % 1014,6 hPa 0,0 l/m 0 min 0 min 0 W/m 19,3 km/h (3 Bft) 100,00 %
20.10.2020 01:22 8,1 C 7,2 C 6,1 C 85 % 1014,6 hPa 0,0 l/m 0 min 0 min 0 W/m 19,3 km/h (3 Bft) 100,00 %
20.10.2020 01:24 8,1 C 7,2 C 6,1 C 85 % 1014,5 hPa 0,0 l/m 0 min 0 min 0 W/m 16,1 km/h (3 Bft) 100,00 %
20.10.2020 01:26 8,1 C 7,2 C 6,1 C 85 % 1014,5 hPa 0,0 l/m 0 min 0 min 0 W/m 19,3 km/h (3 Bft) 97,92 %
20.10.2020 01:28 8,1 C 7,2 C 6,1 C 85 % 1014,5 hPa 0,0 l/m 0 min 0 min 0 W/m 16,1 km/h (3 Bft) 97,92 %
20.10.2020 01:30 8,1 C 7,2 C 6,1 C 85 % 1014,4 hPa 0,0 l/m 0 min 0 min 0 W/m 25,7 km/h (4 Bft) 97,87 %
20.10.2020 01:32 8,1 C 7,2 C 6,1 C 85 % 1014,4 hPa 0,0 l/m 0 min 0 min 0 W/m 22,5 km/h (4 Bft) 97,87 %
20.10.2020 01:34 8,0 C 7,2 C 6,1 C 85 % 1014,3 hPa 0,0 l/m 0 min 0 min 0 W/m 12,9 km/h (3 Bft) 100,00 %
20.10.2020 01:36 8,0 C 7,2 C 6,1 C 85 % 1014,3 hPa 0,0 l/m 0 min 0 min 0 W/m 22,5 km/h (4 Bft) 100,00 %
20.10.2020 01:38 8,0 C 7,2 C 6,1 C 85 % 1014,3 hPa 0,0 l/m 0 min 0 min 0 W/m 19,3 km/h (3 Bft) 100,00 %
20.10.2020 01:40 8,0 C 7,2 C 6,1 C 85 % 1014,1 hPa 0,0 l/m 0 min 0 min 0 W/m 19,3 km/h (3 Bft) 100,00 %
20.10.2020 01:42 8,0 C 7,2 C 6,1 C 85 % 1014,1 hPa 0,0 l/m 0 min 0 min 0 W/m 16,1 km/h (3 Bft) 100,00 %
20.10.2020 01:44 8,0 C 7,2 C 6,1 C 85 % 1014,1 hPa 0,0 l/m 0 min 0 min 0 W/m 19,3 km/h (3 Bft) 100,00 %
20.10.2020 01:46 8,0 C 7,2 C 6,1 C 85 % 1014,1 hPa 0,0 l/m 0 min 0 min 0 W/m 25,7 km/h (4 Bft) 100,00 %
20.10.2020 01:48 8,0 C 7,2 C 6,1 C 85 % 1014,1 hPa 0,0 l/m 0 min 0 min 0 W/m 22,5 km/h (4 Bft) 100,00 %
20.10.2020 01:50 8,0 C 7,2 C 6,1 C 85 % 1014,1 hPa 0,0 l/m 0 min 0 min 0 W/m 22,5 km/h (4 Bft) 100,00 %
20.10.2020 01:52 8,0 C 7,2 C 6,1 C 85 % 1014,1 hPa 0,0 l/m 0 min 0 min 0 W/m 12,9 km/h (3 Bft) 100,00 %
20.10.2020 01:54 8,0 C 7,2 C 6,1 C 85 % 1014,1 hPa 0,0 l/m 0 min 0 min 0 W/m 12,9 km/h (3 Bft) 100,00 %
20.10.2020 01:56 8,0 C 7,2 C 5,6 C 85 % 1014,1 hPa 0,0 l/m 0 min 0 min 0 W/m 16,1 km/h (3 Bft) 97,92 %
20.10.2020 01:58 8,0 C 7,2 C 6,1 C 85 % 1014,1 hPa 0,0 l/m 0 min 0 min 0 W/m 19,3 km/h (3 Bft) 100,00 %
20.10.2020 02:00 8,0 C 7,2 C 6,1 C 85 % 1014,1 hPa 0,0 l/m 0 min 0 min 0 W/m 16,1 km/h (3 Bft) 100,00 %
20.10.2020 02:02 8,0 C 7,2 C 5,6 C 85 % 1014,0 hPa 0,0 l/m 0 min 0 min 0 W/m 19,3 km/h (3 Bft) 100,00 %
20.10.2020 02:04 8,0 C 7,2 C 6,1 C 85 % 1014,1 hPa 0,0 l/m 0 min 0 min 0 W/m 16,1 km/h (3 Bft) 100,00 %
20.10.2020 02:06 7,9 C 7,2 C 6,1 C 85 % 1014,3 hPa 0,0 l/m 0 min 0 min 0 W/m 16,1 km/h (3 Bft) 100,00 %
20.10.2020 02:08 7,9 C 7,2 C 6,1 C 85 % 1014,3 hPa 0,0 l/m 0 min 0 min 0 W/m 12,9 km/h (3 Bft) 97,87 %
20.10.2020 02:10 7,9 C 7,2 C 6,1 C 85 % 1014,3 hPa 0,0 l/m 0 min 0 min 0 W/m 16,1 km/h (3 Bft) 97,87 %
20.10.2020 02:12 7,9 C 7,2 C 6,1 C 85 % 1014,1 hPa 0,0 l/m 0 min 0 min 0 W/m 19,3 km/h (3 Bft) 97,87 %
20.10.2020 02:14 7,9 C 7,2 C 6,1 C 85 % 1014,2 hPa 0,0 l/m 0 min 0 min 0 W/m 16,1 km/h (3 Bft) 100,00 %
20.10.2020 02:16 7,9 C 7,2 C 6,1 C 85 % 1014,1 hPa 0,0 l/m 0 min 0 min 0 W/m 22,5 km/h (4 Bft) 98,33 %
20.10.2020 02:18 7,9 C 7,2 C 6,1 C 85 % 1014,2 hPa 0,0 l/m 0 min 0 min 0 W/m 22,5 km/h (4 Bft) 100,00 %
20.10.2020 02:20 7,9 C 7,2 C 6,1 C 85 % 1014,2 hPa 0,0 l/m 0 min 0 min 0 W/m 22,5 km/h (4 Bft) 100,00 %
20.10.2020 02:22 7,9 C 7,2 C 6,1 C 85 % 1014,1 hPa 0,0 l/m 0 min 0 min 0 W/m 16,1 km/h (3 Bft) 100,00 %
20.10.2020 02:24 7,9 C 7,2 C 6,1 C 85 % 1014,2 hPa 0,0 l/m 0 min 0 min 0 W/m 12,9 km/h (3 Bft) 100,00 %
20.10.2020 02:26 8,0 C 7,2 C 6,1 C 85 % 1014,0 hPa 0,0 l/m 0 min 0 min 0 W/m 19,3 km/h (3 Bft) 97,92 %
20.10.2020 02:28 8,0 C 7,2 C 6,1 C 85 % 1014,0 hPa 0,0 l/m 0 min 0 min 0 W/m 16,1 km/h (3 Bft) 97,92 %
20.10.2020 02:30 8,0 C 7,2 C 6,1 C 85 % 1013,9 hPa 0,0 l/m 0 min 0 min 0 W/m 16,1 km/h (3 Bft) 97,87 %
20.10.2020 02:32 8,0 C 7,2 C 6,1 C 85 % 1013,9 hPa 0,0 l/m 0 min 0 min 0 W/m 16,1 km/h (3 Bft) 97,92 %
20.10.2020 02:34 8,0 C 7,2 C 6,1 C 85 % 1013,8 hPa 0,0 l/m 0 min 0 min 0 W/m 22,5 km/h (4 Bft) 97,87 %
20.10.2020 02:36 8,0 C 7,2 C 6,1 C 85 % 1013,7 hPa 0,0 l/m 0 min 0 min 0 W/m 16,1 km/h (3 Bft) 97,87 %
20.10.2020 02:38 8,0 C 7,8 C 6,1 C 84 % 1013,7 hPa 0,0 l/m 0 min 0 min 0 W/m 35,4 km/h (5 Bft) 95,74 %
20.10.2020 02:40 8,0 C 7,8 C 6,1 C 84 % 1013,6 hPa 0,0 l/m 0 min 0 min 0 W/m 22,5 km/h (4 Bft) 56,52 %
20.10.2020 02:42 8,0 C 7,8 C 6,1 C 84 % 1013,6 hPa 0,0 l/m 0 min 0 min 0 W/m 25,7 km/h (4 Bft) 92,68 %
20.10.2020 02:44 8,0 C 7,8 C 6,1 C 84 % 1013,6 hPa 0,0 l/m 0 min 0 min 0 W/m 25,7 km/h (4 Bft) 95,83 %
20.10.2020 02:46 8,1 C 7,8 C 6,1 C 84 % 1013,6 hPa 0,0 l/m 0 min 0 min 0 W/m 19,3 km/h (3 Bft) 93,75 %
20.10.2020 02:48 8,1 C 7,8 C 6,1 C 84 % 1013,5 hPa 0,0 l/m 0 min 0 min 0 W/m 29,0 km/h (5 Bft) 95,83 %
20.10.2020 02:50 8,1 C 7,8 C 6,1 C 84 % 1013,6 hPa 0,0 l/m 0 min 0 min 0 W/m 32,2 km/h (5 Bft) 93,75 %
20.10.2020 02:52 8,1 C 7,8 C 6,1 C 84 % 1013,5 hPa 0,0 l/m 0 min 0 min 0 W/m 22,5 km/h (4 Bft) 95,83 %
20.10.2020 02:54 8,1 C 7,8 C 6,1 C 84 % 1013,5 hPa 0,0 l/m 0 min 0 min 0 W/m 19,3 km/h (3 Bft) 93,62 %
20.10.2020 02:56 8,1 C 7,8 C 6,1 C 84 % 1013,5 hPa 0,0 l/m 0 min 0 min 0 W/m 25,7 km/h (4 Bft) 95,83 %
20.10.2020 02:58 8,1 C 7,8 C 6,1 C 84 % 1013,5 hPa 0,0 l/m 0 min 0 min 0 W/m 19,3 km/h (3 Bft) 92,68 %
20.10.2020 03:00 8,1 C 7,8 C 6,1 C 84 % 1013,4 hPa 0,0 l/m 0 min 0 min 0 W/m 22,5 km/h (4 Bft) 93,75 %
20.10.2020 03:02 8,2 C 7,8 C 6,1 C 84 % 1013,4 hPa 0,0 l/m 0 min 0 min 0 W/m 16,1 km/h (3 Bft) 92,00 %
20.10.2020 03:04 8,2 C 7,8 C 6,1 C 84 % 1013,5 hPa 0,0 l/m 0 min 0 min 0 W/m 29,0 km/h (5 Bft) 93,75 %
20.10.2020 03:06 8,2 C 7,8 C 6,1 C 84 % 1013,4 hPa 0,0 l/m 0 min 0 min 0 W/m 19,3 km/h (3 Bft) 93,62 %
20.10.2020 03:08 8,2 C 7,8 C 6,1 C 83 % 1013,3 hPa 0,0 l/m 0 min 0 min 0 W/m 29,0 km/h (5 Bft) 92,00 %
20.10.2020 03:10 8,2 C 7,8 C 6,1 C 83 % 1013,3 hPa 0,0 l/m 0 min 0 min 0 W/m 19,3 km/h (3 Bft) 93,62 %
20.10.2020 03:12 8,2 C 7,8 C 6,1 C 83 % 1013,2 hPa 0,0 l/m 0 min 0 min 0 W/m 22,5 km/h (4 Bft) 93,62 %
20.10.2020 03:14 8,2 C 7,8 C 6,1 C 83 % 1013,2 hPa 0,0 l/m 0 min 0 min 0 W/m 22,5 km/h (4 Bft) 92,68 %
20.10.2020 03:16 8,3 C 7,8 C 6,1 C 83 % 1013,2 hPa 0,0 l/m 0 min 0 min 0 W/m 22,5 km/h (4 Bft) 93,62 %
20.10.2020 03:18 8,2 C 7,8 C 6,1 C 83 % 1013,1 hPa 0,0 l/m 0 min 0 min 0 W/m 22,5 km/h (4 Bft) 93,75 %
20.10.2020 03:20 8,3 C 7,8 C 6,1 C 83 % 1013,1 hPa 0,0 l/m 0 min 0 min 0 W/m 22,5 km/h (4 Bft) 91,67 %
20.10.2020 03:22 8,3 C 7,8 C 6,1 C 83 % 1013,0 hPa 0,0 l/m 0 min 0 min 0 W/m 22,5 km/h (4 Bft) 93,75 %
20.10.2020 03:24 8,3 C 7,8 C 6,1 C 83 % 1012,9 hPa 0,0 l/m 0 min 0 min 0 W/m 19,3 km/h (3 Bft) 93,75 %
20.10.2020 03:26 8,2 C 7,8 C 6,1 C 83 % 1012,9 hPa 0,0 l/m 0 min 0 min 0 W/m 25,7 km/h (4 Bft) 93,62 %
20.10.2020 03:28 8,3 C 7,8 C 6,1 C 83 % 1012,8 hPa 0,0 l/m 0 min 0 min 0 W/m 29,0 km/h (5 Bft) 93,75 %
20.10.2020 03:30 8,3 C 7,8 C 6,1 C 83 % 1012,8 hPa 0,0 l/m 0 min 0 min 0 W/m 35,4 km/h (5 Bft) 95,83 %
20.10.2020 03:32 8,3 C 7,8 C 6,1 C 83 % 1012,8 hPa 0,0 l/m 0 min 0 min 0 W/m 22,5 km/h (4 Bft) 97,87 %
20.10.2020 03:34 8,3 C 7,8 C 6,1 C 83 % 1012,7 hPa 0,0 l/m 0 min 0 min 0 W/m 25,7 km/h (4 Bft) 95,12 %
20.10.2020 03:36 8,3 C 7,8 C 6,1 C 83 % 1012,6 hPa 0,0 l/m 0 min 0 min 0 W/m 19,3 km/h (3 Bft) 97,92 %
20.10.2020 03:38 8,3 C 7,8 C 6,1 C 83 % 1012,6 hPa 0,0 l/m 0 min 0 min 0 W/m 19,3 km/h (3 Bft) 97,87 %
20.10.2020 03:40 8,3 C 7,8 C 6,1 C 83 % 1012,6 hPa 0,0 l/m 0 min 0 min 0 W/m 51,5 km/h (7 Bft) 97,92 %
20.10.2020 03:42 8,3 C 7,8 C 6,1 C 83 % 1012,5 hPa 0,0 l/m 0 min 0 min 0 W/m 19,3 km/h (3 Bft) 97,92 %
20.10.2020 03:44 8,3 C 7,8 C 6,7 C 83 % 1012,4 hPa 0,0 l/m 0 min 0 min 0 W/m 25,7 km/h (4 Bft) 93,75 %
20.10.2020 03:46 8,3 C 7,8 C 6,7 C 83 % 1012,4 hPa 0,0 l/m 0 min 0 min 0 W/m 32,2 km/h (5 Bft) 97,92 %
20.10.2020 03:48 8,4 C 7,8 C 6,7 C 83 % 1012,4 hPa 0,0 l/m 0 min 0 min 0 W/m 25,7 km/h (4 Bft) 95,65 %
20.10.2020 03:50 8,4 C 7,8 C 6,7 C 83 % 1012,3 hPa 0,0 l/m 0 min 0 min 0 W/m 22,5 km/h (4 Bft) 97,87 %
20.10.2020 03:52 8,4 C 7,8 C 6,7 C 83 % 1012,2 hPa 0,0 l/m 0 min 0 min 0 W/m 19,3 km/h (3 Bft) 95,12 %
20.10.2020 03:54 8,4 C 7,8 C 6,7 C 83 % 1012,2 hPa 0,0 l/m 0 min 0 min 0 W/m 19,3 km/h (3 Bft) 100,00 %
20.10.2020 03:56 8,4 C 7,8 C 6,7 C 83 % 1012,3 hPa 0,0 l/m 0 min 0 min 0 W/m 19,3 km/h (3 Bft) 100,00 %
20.10.2020 03:58 8,4 C 7,8 C 6,7 C 83 % 1012,2 hPa 0,0 l/m 0 min 0 min 0 W/m 22,5 km/h (4 Bft) 100,00 %
20.10.2020 04:00 8,4 C 7,8 C 6,7 C 83 % 1012,2 hPa 0,0 l/m 0 min 0 min 0 W/m 38,6 km/h (5 Bft) 100,00 %
20.10.2020 04:02 8,4 C 7,8 C 6,7 C 82 % 1012,3 hPa 0,0 l/m 0 min 0 min 0 W/m 16,1 km/h (3 Bft) 100,00 %
20.10.2020 04:04 8,4 C 7,8 C 6,7 C 82 % 1012,3 hPa 0,0 l/m 0 min 0 min 0 W/m 22,5 km/h (4 Bft) 100,00 %
20.10.2020 04:06 8,4 C 7,8 C 6,7 C 82 % 1012,2 hPa 0,0 l/m 0 min 0 min 0 W/m 22,5 km/h (4 Bft) 100,00 %
20.10.2020 04:08 8,4 C 7,8 C 6,7 C 82 % 1012,1 hPa 0,0 l/m 0 min 0 min 0 W/m 22,5 km/h (4 Bft) 100,00 %
20.10.2020 04:10 8,5 C 7,8 C 6,7 C 82 % 1012,1 hPa 0,0 l/m 0 min 0 min 0 W/m 25,7 km/h (4 Bft) 100,00 %
20.10.2020 04:12 8,5 C 7,8 C 6,7 C 82 % 1012,2 hPa 0,0 l/m 0 min 0 min 0 W/m 16,1 km/h (3 Bft) 100,00 %
20.10.2020 04:14 8,5 C 7,8 C 6,7 C 83 % 1012,1 hPa 0,0 l/m 0 min 0 min 0 W/m 12,9 km/h (3 Bft) 100,00 %
20.10.2020 04:16 8,5 C 7,8 C 6,7 C 83 % 1012,1 hPa 0,0 l/m 0 min 0 min 0 W/m 16,1 km/h (3 Bft) 100,00 %
20.10.2020 04:18 8,5 C 7,8 C 6,7 C 83 % 1012,0 hPa 0,0 l/m 0 min 0 min 0 W/m 12,9 km/h (3 Bft) 100,00 %
20.10.2020 04:20 8,5 C 7,8 C 6,7 C 83 % 1012,0 hPa 0,0 l/m 0 min 0 min 0 W/m 22,5 km/h (4 Bft) 100,00 %
20.10.2020 04:22 8,5 C 7,8 C 6,7 C 83 % 1012,0 hPa 0,0 l/m 0 min 0 min 0 W/m 19,3 km/h (3 Bft) 100,00 %
20.10.2020 04:24 8,5 C 7,8 C 6,7 C 83 % 1012,0 hPa 0,0 l/m 0 min 0 min 0 W/m 16,1 km/h (3 Bft) 100,00 %
20.10.2020 04:26 8,5 C 7,8 C 6,7 C 83 % 1012,0 hPa 0,0 l/m 0 min 0 min 0 W/m 19,3 km/h (3 Bft) 100,00 %
20.10.2020 04:28 8,5 C 7,8 C 6,7 C 83 % 1011,9 hPa 0,0 l/m 0 min 0 min 0 W/m 19,3 km/h (3 Bft) 100,00 %
20.10.2020 04:30 8,5 C 7,8 C 6,7 C 83 % 1011,9 hPa 0,0 l/m 0 min 0 min 0 W/m 16,1 km/h (3 Bft) 100,00 %
20.10.2020 04:32 8,5 C 7,8 C 6,7 C 83 % 1011,9 hPa 0,0 l/m 0 min 0 min 0 W/m 12,9 km/h (3 Bft) 100,00 %
20.10.2020 04:34 8,5 C 7,8 C 6,7 C 83 % 1011,9 hPa 0,0 l/m 0 min 0 min 0 W/m 16,1 km/h (3 Bft) 100,00 %
20.10.2020 04:36 8,5 C 7,8 C 6,7 C 83 % 1011,9 hPa 0,0 l/m 0 min 0 min 0 W/m 16,1 km/h (3 Bft) 100,00 %
20.10.2020 04:38 8,5 C 7,8 C 6,7 C 83 % 1012,0 hPa 0,0 l/m 0 min 0 min 0 W/m 22,5 km/h (4 Bft) 100,00 %
20.10.2020 04:40 8,5 C 7,8 C 6,1 C 83 % 1011,9 hPa 0,0 l/m 0 min 0 min 0 W/m 16,1 km/h (3 Bft) 100,00 %
20.10.2020 04:42 8,5 C 7,8 C 6,1 C 83 % 1011,8 hPa 0,0 l/m 0 min 0 min 0 W/m 16,1 km/h (3 Bft) 100,00 %
20.10.2020 04:44 8,5 C 7,8 C 6,1 C 83 % 1011,8 hPa 0,0 l/m 0 min 0 min 0 W/m 16,1 km/h (3 Bft) 100,00 %
20.10.2020 04:46 8,5 C 7,8 C 6,1 C 83 % 1011,8 hPa 0,0 l/m 0 min 0 min 0 W/m 12,9 km/h (3 Bft) 100,00 %
20.10.2020 04:48 8,5 C 7,8 C 6,1 C 83 % 1011,8 hPa 0,0 l/m 0 min 0 min 0 W/m 12,9 km/h (3 Bft) 100,00 %
20.10.2020 04:50 8,5 C 7,8 C 6,1 C 83 % 1011,8 hPa 0,0 l/m 0 min 0 min 0 W/m 16,1 km/h (3 Bft) 100,00 %
20.10.2020 04:52 8,5 C 7,8 C 6,1 C 83 % 1011,8 hPa 0,0 l/m 0 min 0 min 0 W/m 12,9 km/h (3 Bft) 100,00 %
20.10.2020 04:54 8,5 C 7,2 C 6,1 C 83 % 1011,9 hPa 0,0 l/m 0 min 0 min 0 W/m 16,1 km/h (3 Bft) 100,00 %
20.10.2020 04:56 8,5 C 7,2 C 6,1 C 83 % 1011,9 hPa 0,0 l/m 0 min 0 min 0 W/m 12,9 km/h (3 Bft) 100,00 %
20.10.2020 04:58 8,4 C 7,2 C 6,1 C 84 % 1011,9 hPa 0,0 l/m 0 min 0 min 0 W/m 16,1 km/h (3 Bft) 100,00 %
20.10.2020 05:00 8,4 C 7,8 C 6,1 C 84 % 1011,9 hPa 0,0 l/m 0 min 0 min 0 W/m 12,9 km/h (3 Bft) 100,00 %
20.10.2020 05:02 8,4 C 7,8 C 6,1 C 84 % 1011,9 hPa 0,0 l/m 0 min 0 min 0 W/m 12,9 km/h (3 Bft) 98,00 %
20.10.2020 05:04 8,4 C 7,8 C 6,1 C 84 % 1011,9 hPa 0,0 l/m 0 min 0 min 0 W/m 19,3 km/h (3 Bft) 100,00 %
20.10.2020 05:06 8,4 C 7,8 C 6,1 C 84 % 1011,8 hPa 0,0 l/m 0 min 0 min 0 W/m 16,1 km/h (3 Bft) 100,00 %
20.10.2020 05:08 8,4 C 7,8 C 6,1 C 84 % 1011,8 hPa 0,0 l/m 0 min 0 min 0 W/m 16,1 km/h (3 Bft) 97,87 %
20.10.2020 05:10 8,4 C 7,8 C 6,1 C 84 % 1011,8 hPa 0,0 l/m 0 min 0 min 0 W/m 16,1 km/h (3 Bft) 100,00 %
20.10.2020 05:12 8,3 C 7,8 C 6,1 C 84 % 1011,7 hPa 0,0 l/m 0 min 0 min 0 W/m 22,5 km/h (4 Bft) 97,87 %
20.10.2020 05:14 8,3 C 7,8 C 6,1 C 84 % 1011,7 hPa 0,0 l/m 0 min 0 min 0 W/m 9,7 km/h (2 Bft) 100,00 %
20.10.2020 05:16 8,3 C 7,8 C 6,1 C 84 % 1011,6 hPa 0,0 l/m 0 min 0 min 0 W/m 22,5 km/h (4 Bft) 97,62 %
20.10.2020 05:18 8,3 C 7,8 C 6,1 C 84 % 1011,6 hPa 0,0 l/m 0 min 0 min 0 W/m 19,3 km/h (3 Bft) 100,00 %
20.10.2020 05:20 8,3 C 7,8 C 6,1 C 84 % 1011,6 hPa 0,0 l/m 0 min 0 min 0 W/m 19,3 km/h (3 Bft) 100,00 %
20.10.2020 05:22 8,3 C 7,8 C 6,1 C 84 % 1011,6 hPa 0,0 l/m 0 min 0 min 0 W/m 19,3 km/h (3 Bft) 97,87 %
20.10.2020 05:24 8,3 C 7,8 C 6,1 C 84 % 1011,6 hPa 0,0 l/m 0 min 0 min 0 W/m 22,5 km/h (4 Bft) 97,92 %
20.10.2020 05:26 8,3 C 7,8 C 6,1 C 84 % 1011,5 hPa 0,0 l/m 0 min 0 min 0 W/m 16,1 km/h (3 Bft) 97,73 %
20.10.2020 05:28 8,3 C 7,8 C 6,1 C 84 % 1011,5 hPa 0,0 l/m 0 min 0 min 0 W/m 12,9 km/h (3 Bft) 97,87 %
20.10.2020 05:30 8,3 C 7,8 C 6,1 C 84 % 1011,5 hPa 0,0 l/m 0 min 0 min 0 W/m 29,0 km/h (5 Bft) 97,56 %
20.10.2020 05:32 8,3 C 7,8 C 6,1 C 84 % 1011,4 hPa 0,0 l/m 0 min 0 min 0 W/m 19,3 km/h (3 Bft) 97,96 %
20.10.2020 05:34 8,3 C 7,8 C 6,1 C 84 % 1011,4 hPa 0,0 l/m 0 min 0 min 0 W/m 12,9 km/h (3 Bft) 97,92 %
20.10.2020 05:36 8,3 C 7,8 C 6,1 C 84 % 1011,4 hPa 0,0 l/m 0 min 0 min 0 W/m 16,1 km/h (3 Bft) 95,74 %
20.10.2020 05:38 8,3 C 7,8 C 6,1 C 84 % 1011,4 hPa 0,0 l/m 0 min 0 min 0 W/m 19,3 km/h (3 Bft) 95,83 %
20.10.2020 05:40 8,3 C 7,8 C 6,1 C 84 % 1011,3 hPa 0,0 l/m 0 min 0 min 0 W/m 25,7 km/h (4 Bft) 95,83 %
20.10.2020 05:42 8,3 C 7,8 C 6,1 C 84 % 1011,3 hPa 0,0 l/m 0 min 0 min 0 W/m 25,7 km/h (4 Bft) 93,62 %
20.10.2020 05:44 8,3 C 7,8 C 6,1 C 84 % 1011,3 hPa 0,0 l/m 0 min 0 min 0 W/m 22,5 km/h (4 Bft) 97,56 %
20.10.2020 05:46 8,3 C 7,8 C 6,1 C 84 % 1011,3 hPa 0,0 l/m 0 min 0 min 0 W/m 22,5 km/h (4 Bft) 93,75 %
20.10.2020 05:48 8,4 C 7,8 C 6,1 C 84 % 1011,2 hPa 0,0 l/m 0 min 0 min 0 W/m 22,5 km/h (4 Bft) 97,87 %
20.10.2020 05:50 8,4 C 7,8 C 6,7 C 84 % 1011,2 hPa 0,0 l/m 0 min 0 min 0 W/m 22,5 km/h (4 Bft) 93,75 %
20.10.2020 05:52 8,4 C 7,8 C 6,1 C 84 % 1011,3 hPa 0,0 l/m 0 min 0 min 0 W/m 19,3 km/h (3 Bft) 93,75 %
20.10.2020 05:54 8,4 C 7,8 C 6,1 C 84 % 1011,2 hPa 0,0 l/m 0 min 0 min 0 W/m 16,1 km/h (3 Bft) 95,83 %
20.10.2020 05:56 8,4 C 7,8 C 6,1 C 84 % 1011,2 hPa 0,0 l/m 0 min 0 min 0 W/m 22,5 km/h (4 Bft) 93,75 %
20.10.2020 05:58 8,4 C 7,8 C 6,1 C 84 % 1010,9 hPa 0,0 l/m 0 min 0 min 0 W/m 35,4 km/h (5 Bft) 95,12 %
20.10.2020 06:00 8,4 C 7,8 C 6,7 C 84 % 1010,8 hPa 0,0 l/m 0 min 0 min 0 W/m 38,6 km/h (5 Bft) 95,74 %
20.10.2020 06:02 8,4 C 7,8 C 6,7 C 84 % 1010,8 hPa 0,0 l/m 0 min 0 min 0 W/m 19,3 km/h (3 Bft) 96,08 %
20.10.2020 06:04 8,4 C 7,8 C 6,7 C 84 % 1010,7 hPa 0,0 l/m 0 min 0 min 0 W/m 25,7 km/h (4 Bft) 95,83 %
20.10.2020 06:08 8,4 C 7,8 C 6,7 C 84 % 1010,5 hPa 0,0 l/m 0 min 0 min 0 W/m 29,0 km/h (5 Bft) 95,74 %
20.10.2020 06:10 8,4 C 7,8 C 6,7 C 84 % 1010,5 hPa 0,0 l/m 0 min 0 min 0 W/m 29,0 km/h (5 Bft) 95,65 %
20.10.2020 06:12 8,5 C 7,8 C 6,7 C 84 % 1010,5 hPa 0,0 l/m 0 min 0 min 0 W/m 19,3 km/h (3 Bft) 92,68 %
20.10.2020 06:14 8,5 C 7,8 C 6,7 C 84 % 1010,3 hPa 0,0 l/m 0 min 0 min 0 W/m 19,3 km/h (3 Bft) 95,83 %
20.10.2020 06:16 8,5 C 7,8 C 6,7 C 84 % 1010,2 hPa 0,0 l/m 0 min 0 min 0 W/m 25,7 km/h (4 Bft) 93,75 %
20.10.2020 06:18 8,5 C 7,8 C 6,7 C 84 % 1010,2 hPa 0,0 l/m 0 min 0 min 0 W/m 22,5 km/h (4 Bft) 95,83 %
20.10.2020 06:20 8,5 C 7,8 C 6,7 C 84 % 1010,2 hPa 0,0 l/m 0 min 0 min 0 W/m 29,0 km/h (5 Bft) 93,75 %
20.10.2020 06:22 8,5 C 7,8 C 6,7 C 84 % 1010,2 hPa 0,0 l/m 0 min 0 min 0 W/m 22,5 km/h (4 Bft) 95,74 %
20.10.2020 06:24 8,5 C 7,8 C 6,7 C 84 % 1010,1 hPa 0,0 l/m 0 min 0 min 0 W/m 25,7 km/h (4 Bft) 95,83 %
20.10.2020 06:26 8,5 C 7,8 C 6,7 C 84 % 1010,1 hPa 0,0 l/m 0 min 0 min 0 W/m 16,1 km/h (3 Bft) 95,74 %
20.10.2020 06:28 8,5 C 7,8 C 6,7 C 84 % 1010,2 hPa 0,0 l/m 0 min 0 min 0 W/m 19,3 km/h (3 Bft) 95,92 %
20.10.2020 06:30 8,6 C 7,8 C 6,7 C 84 % 1010,3 hPa 0,0 l/m 0 min 0 min 0 W/m 19,3 km/h (3 Bft) 95,74 %
20.10.2020 06:32 8,6 C 7,8 C 6,7 C 84 % 1010,3 hPa 0,0 l/m 0 min 0 min 0 W/m 16,1 km/h (3 Bft) 95,12 %
20.10.2020 06:34 8,6 C 7,8 C 6,7 C 84 % 1010,4 hPa 0,0 l/m 0 min 0 min 0 W/m 12,9 km/h (3 Bft) 95,65 %
20.10.2020 06:36 8,6 C 7,8 C 6,7 C 84 % 1010,4 hPa 0,0 l/m 0 min 0 min 0 W/m 19,3 km/h (3 Bft) 95,83 %
20.10.2020 06:38 8,6 C 7,8 C 6,7 C 84 % 1010,4 hPa 0,0 l/m 0 min 0 min 0 W/m 16,1 km/h (3 Bft) 95,83 %
20.10.2020 06:40 8,6 C 7,8 C 6,7 C 85 % 1010,5 hPa 0,0 l/m 0 min 0 min 0 W/m 19,3 km/h (3 Bft) 95,83 %
20.10.2020 06:42 8,6 C 7,8 C 6,7 C 85 % 1010,5 hPa 0,0 l/m 0 min 0 min 0 W/m 16,1 km/h (3 Bft) 97,92 %
20.10.2020 06:44 8,6 C 7,8 C 6,7 C 85 % 1010,5 hPa 0,0 l/m 0 min 0 min 0 W/m 22,5 km/h (4 Bft) 97,87 %
20.10.2020 06:46 8,6 C 7,8 C 6,7 C 85 % 1010,5 hPa 0,0 l/m 0 min 0 min 0 W/m 16,1 km/h (3 Bft) 95,83 %
20.10.2020 06:48 8,6 C 7,8 C 6,7 C 85 % 1010,5 hPa 0,0 l/m 0 min 0 min 0 W/m 22,5 km/h (4 Bft) 97,87 %
20.10.2020 06:50 8,6 C 7,8 C 6,7 C 85 % 1010,4 hPa 0,0 l/m 0 min 0 min 0 W/m 19,3 km/h (3 Bft) 97,87 %
20.10.2020 06:52 8,6 C 7,8 C 6,7 C 85 % 1010,4 hPa 0,0 l/m 0 min 0 min 0 W/m 19,3 km/h (3 Bft) 97,87 %
20.10.2020 06:54 8,6 C 7,8 C 6,7 C 85 % 1010,3 hPa 0,0 l/m 0 min 0 min 0 W/m 22,5 km/h (4 Bft) 97,83 %
20.10.2020 06:56 8,6 C 7,8 C 6,7 C 85 % 1010,3 hPa 0,0 l/m 0 min 0 min 0 W/m 19,3 km/h (3 Bft) 97,87 %
20.10.2020 06:58 8,6 C 7,8 C 6,7 C 85 % 1010,5 hPa 0,0 l/m 0 min 0 min 0 W/m 19,3 km/h (3 Bft) 97,73 %
20.10.2020 07:00 8,6 C 7,8 C 6,7 C 85 % 1010,5 hPa 0,0 l/m 0 min 0 min 0 W/m 12,9 km/h (3 Bft) 97,96 %
20.10.2020 07:02 8,6 C 7,8 C 6,7 C 85 % 1010,5 hPa 0,0 l/m 0 min 0 min 0 W/m 16,1 km/h (3 Bft) 97,92 %
20.10.2020 07:04 8,6 C 7,8 C 6,7 C 85 % 1010,4 hPa 0,0 l/m 0 min 0 min 0 W/m 16,1 km/h (3 Bft) 97,87 %
20.10.2020 07:06 8,6 C 7,8 C 6,7 C 85 % 1010,5 hPa 0,0 l/m 0 min 0 min 0 W/m 16,1 km/h (3 Bft) 97,56 %
20.10.2020 07:08 8,6 C 7,8 C 6,7 C 85 % 1010,5 hPa 0,0 l/m 0 min 0 min 0 W/m 12,9 km/h (3 Bft) 97,87 %
20.10.2020 07:10 8,6 C 7,8 C 6,7 C 85 % 1010,5 hPa 0,0 l/m 0 min 0 min 0 W/m 16,1 km/h (3 Bft) 97,92 %
20.10.2020 07:12 8,6 C 7,8 C 6,1 C 85 % 1010,5 hPa 0,0 l/m 0 min 0 min 0 W/m 12,9 km/h (3 Bft) 97,92 %
20.10.2020 07:14 8,6 C 7,8 C 6,1 C 85 % 1010,5 hPa 0,0 l/m 0 min 0 min 0 W/m 16,1 km/h (3 Bft) 97,92 %
20.10.2020 07:16 8,6 C 7,8 C 6,1 C 85 % 1010,5 hPa 0,0 l/m 0 min 0 min 0 W/m 12,9 km/h (3 Bft) 97,92 %
20.10.2020 07:18 8,5 C 7,8 C 6,1 C 85 % 1010,3 hPa 0,0 l/m 0 min 0 min 0 W/m 16,1 km/h (3 Bft) 97,87 %
20.10.2020 07:20 8,5 C 7,8 C 6,1 C 85 % 1010,2 hPa 0,0 l/m 0 min 0 min 0 W/m 22,5 km/h (4 Bft) 100,00 %
20.10.2020 07:22 8,5 C 7,8 C 6,1 C 85 % 1010,3 hPa 0,0 l/m 0 min 0 min 0 W/m 16,1 km/h (3 Bft) 100,00 %
20.10.2020 07:24 8,5 C 7,8 C 6,1 C 85 % 1010,2 hPa 0,0 l/m 0 min 0 min 0 W/m 19,3 km/h (3 Bft) 100,00 %
20.10.2020 07:26 8,5 C 7,8 C 6,7 C 85 % 1010,2 hPa 0,0 l/m 0 min 0 min 0 W/m 12,9 km/h (3 Bft) 97,87 %
20.10.2020 07:28 8,5 C 7,8 C 6,7 C 85 % 1010,2 hPa 0,0 l/m 0 min 0 min 0 W/m 22,5 km/h (4 Bft) 100,00 %
20.10.2020 07:30 8,5 C 7,8 C 6,7 C 86 % 1010,2 hPa 0,0 l/m 0 min 0 min 0 W/m 19,3 km/h (3 Bft) 100,00 %
20.10.2020 07:32 8,5 C 7,8 C 6,7 C 86 % 1010,4 hPa 0,0 l/m 0 min 0 min 0 W/m 16,1 km/h (3 Bft) 100,00 %
20.10.2020 07:34 8,5 C 7,8 C 6,7 C 86 % 1010,4 hPa 0,0 l/m 0 min 0 min 0 W/m 19,3 km/h (3 Bft) 100,00 %
20.10.2020 07:36 8,5 C 7,8 C 6,7 C 86 % 1010,3 hPa 0,0 l/m 0 min 0 min 0 W/m 19,3 km/h (3 Bft) 97,92 %
20.10.2020 07:38 8,5 C 7,8 C 6,7 C 86 % 1010,5 hPa 0,0 l/m 0 min 0 min 0 W/m 22,5 km/h (4 Bft) 97,92 %
20.10.2020 07:40 8,5 C 7,8 C 6,7 C 86 % 1010,5 hPa 0,0 l/m 0 min 0 min 0 W/m 22,5 km/h (4 Bft) 100,00 %
20.10.2020 07:42 8,5 C 7,8 C 6,7 C 86 % 1010,6 hPa 0,0 l/m 0 min 0 min 0 W/m 22,5 km/h (4 Bft) 100,00 %
20.10.2020 07:44 8,5 C 7,8 C 6,7 C 86 % 1010,6 hPa 0,0 l/m 0 min 0 min 0 W/m 22,5 km/h (4 Bft) 97,87 %
20.10.2020 07:46 8,5 C 7,8 C 6,7 C 86 % 1010,6 hPa 0,0 l/m 0 min 0 min 0 W/m 19,3 km/h (3 Bft) 100,00 %
20.10.2020 07:48 8,5 C 7,8 C 6,7 C 86 % 1010,5 hPa 0,0 l/m 0 min 0 min 0 W/m 19,3 km/h (3 Bft) 97,62 %
20.10.2020 07:50 8,5 C 7,8 C 6,7 C 86 % 1010,5 hPa 0,0 l/m 0 min 0 min 0 W/m 22,5 km/h (4 Bft) 97,92 %
20.10.2020 07:52 8,5 C 7,8 C 6,7 C 85 % 1010,3 hPa 0,0 l/m 0 min 0 min 0 W/m 22,5 km/h (4 Bft) 100,00 %
20.10.2020 07:54 8,6 C 7,8 C 6,7 C 85 % 1010,1 hPa 0,0 l/m 0 min 0 min 0 W/m 16,1 km/h (3 Bft) 100,00 %
20.10.2020 07:56 8,6 C 7,8 C 6,7 C 85 % 1010,1 hPa 0,0 l/m 0 min 0 min 0 W/m 19,3 km/h (3 Bft) 100,00 %
20.10.2020 07:58 8,6 C 8,3 C 6,7 C 85 % 1010,2 hPa 0,0 l/m 0 min 0 min 0 W/m 35,4 km/h (5 Bft) 97,92 %
20.10.2020 08:00 8,6 C 7,8 C 6,7 C 85 % 1010,2 hPa 0,0 l/m 0 min 0 min 0 W/m 29,0 km/h (5 Bft) 100,00 %
20.10.2020 08:02 8,6 C 7,8 C 6,7 C 85 % 1010,3 hPa 0,0 l/m 0 min 0 min 0 W/m 25,7 km/h (4 Bft) 100,00 %
20.10.2020 08:04 8,6 C 7,8 C 6,7 C 85 % 1010,4 hPa 0,0 l/m 0 min 0 min 0 W/m 19,3 km/h (3 Bft) 100,00 %
20.10.2020 08:06 8,6 C 7,8 C 6,7 C 85 % 1010,2 hPa 0,0 l/m 0 min 0 min 0 W/m 19,3 km/h (3 Bft) 100,00 %
20.10.2020 08:08 8,6 C 7,8 C 6,7 C 85 % 1010,3 hPa 0,0 l/m 0 min 0 min 0 W/m 22,5 km/h (4 Bft) 95,83 %
20.10.2020 08:10 8,6 C 7,8 C 6,7 C 85 % 1010,3 hPa 0,0 l/m 0 min 0 min 0 W/m 25,7 km/h (4 Bft) 100,00 %
20.10.2020 08:12 8,6 C 8,3 C 6,7 C 85 % 1010,3 hPa 0,0 l/m 0 min 0 min 0 W/m 25,7 km/h (4 Bft) 97,87 %
20.10.2020 08:14 8,6 C 8,3 C 6,7 C 85 % 1010,3 hPa 0,0 l/m 0 min 0 min 0 W/m 25,7 km/h (4 Bft) 97,87 %
20.10.2020 08:16 8,6 C 8,3 C 6,7 C 85 % 1010,2 hPa 0,0 l/m 0 min 0 min 0 W/m 19,3 km/h (3 Bft) 95,65 %
20.10.2020 08:18 8,7 C 8,3 C 6,7 C 85 % 1009,9 hPa 0,0 l/m 0 min 0 min 0 W/m 25,7 km/h (4 Bft) 97,62 %
20.10.2020 08:20 8,7 C 8,3 C 6,7 C 86 % 1009,9 hPa 0,0 l/m 0 min 0 min 0 W/m 12,9 km/h (3 Bft) 97,92 %
20.10.2020 08:22 8,7 C 8,3 C 6,7 C 86 % 1009,7 hPa 0,0 l/m 0 min 0 min 0 W/m 12,9 km/h (3 Bft) 95,83 %
20.10.2020 08:24 8,7 C 8,3 C 6,7 C 86 % 1009,5 hPa 0,0 l/m 0 min 0 min 0 W/m 29,0 km/h (5 Bft) 97,92 %
20.10.2020 08:26 8,8 C 8,3 C 6,7 C 86 % 1009,5 hPa 0,0 l/m 0 min 0 min 0 W/m 35,4 km/h (5 Bft) 95,83 %
20.10.2020 08:28 8,8 C 8,3 C 6,7 C 86 % 1009,9 hPa 0,0 l/m 0 min 0 min 5 W/m 19,3 km/h (3 Bft) 97,87 %
20.10.2020 08:30 8,8 C 8,3 C 7,2 C 86 % 1009,7 hPa 0,0 l/m 0 min 0 min 5 W/m 29,0 km/h (5 Bft) 95,56 %
20.10.2020 08:32 8,8 C 8,3 C 7,2 C 86 % 1009,7 hPa 0,0 l/m 0 min 0 min 5 W/m 38,6 km/h (5 Bft) 93,75 %
20.10.2020 08:34 8,8 C 8,3 C 7,2 C 86 % 1009,6 hPa 0,0 l/m 0 min 0 min 6 W/m 29,0 km/h (5 Bft) 95,12 %
20.10.2020 08:36 8,9 C 8,3 C 7,2 C 86 % 1009,8 hPa 0,0 l/m 0 min 0 min 7 W/m 22,5 km/h (4 Bft) 95,83 %
20.10.2020 08:38 8,9 C 8,3 C 7,2 C 86 % 1009,8 hPa 0,0 l/m 0 min 0 min 7 W/m 25,7 km/h (4 Bft) 95,83 %
20.10.2020 08:40 8,9 C 8,3 C 7,2 C 86 % 1009,7 hPa 0,0 l/m 0 min 0 min 7 W/m 29,0 km/h (5 Bft) 93,75 %
20.10.2020 08:42 8,9 C 8,3 C 7,2 C 86 % 1009,6 hPa 0,0 l/m 0 min 0 min 8 W/m 22,5 km/h (4 Bft) 93,75 %
20.10.2020 08:44 9,0 C 8,3 C 7,2 C 86 % 1009,7 hPa 0,0 l/m 0 min 0 min 10 W/m 22,5 km/h (4 Bft) 95,83 %
20.10.2020 08:46 9,0 C 8,3 C 7,2 C 86 % 1009,5 hPa 0,0 l/m 0 min 0 min 12 W/m 22,5 km/h (4 Bft) 93,62 %
20.10.2020 08:48 9,0 C 8,9 C 7,2 C 86 % 1009,5 hPa 0,0 l/m 0 min 0 min 14 W/m 22,5 km/h (4 Bft) 93,62 %
20.10.2020 08:50 9,0 C 8,9 C 7,2 C 86 % 1009,5 hPa 0,0 l/m 0 min 0 min 18 W/m 25,7 km/h (4 Bft) 95,12 %
20.10.2020 08:52 9,0 C 8,9 C 7,2 C 86 % 1009,7 hPa 0,0 l/m 0 min 0 min 20 W/m 25,7 km/h (4 Bft) 95,83 %
20.10.2020 08:54 9,1 C 8,9 C 7,2 C 86 % 1009,9 hPa 0,0 l/m 0 min 0 min 21 W/m 29,0 km/h (5 Bft) 95,74 %
20.10.2020 08:56 9,1 C 8,9 C 7,2 C 86 % 1010,0 hPa 0,0 l/m 0 min 0 min 21 W/m 22,5 km/h (4 Bft) 97,92 %
20.10.2020 08:58 9,1 C 8,9 C 7,2 C 86 % 1010,1 hPa 0,0 l/m 0 min 0 min 21 W/m 25,7 km/h (4 Bft) 98,00 %
20.10.2020 09:00 9,1 C 8,9 C 7,2 C 86 % 1010,0 hPa 0,0 l/m 0 min 0 min 21 W/m 19,3 km/h (3 Bft) 93,62 %
20.10.2020 09:02 9,1 C 8,9 C 7,2 C 86 % 1010,1 hPa 0,0 l/m 0 min 0 min 20 W/m 35,4 km/h (5 Bft) 95,24 %
20.10.2020 09:04 9,2 C 8,9 C 7,2 C 86 % 1010,0 hPa 0,0 l/m 0 min 0 min 19 W/m 16,1 km/h (3 Bft) 97,96 %
20.10.2020 09:06 9,2 C 8,9 C 7,2 C 86 % 1010,0 hPa 0,0 l/m 0 min 0 min 17 W/m 16,1 km/h (3 Bft) 95,83 %
20.10.2020 09:08 9,2 C 8,9 C 7,2 C 86 % 1010,0 hPa 0,0 l/m 0 min 0 min 16 W/m 19,3 km/h (3 Bft) 97,92 %
20.10.2020 09:10 9,2 C 8,9 C 7,2 C 86 % 1009,9 hPa 0,0 l/m 0 min 0 min 14 W/m 16,1 km/h (3 Bft) 95,83 %
20.10.2020 09:12 9,2 C 8,9 C 7,2 C 86 % 1009,9 hPa 0,0 l/m 0 min 0 min 15 W/m 16,1 km/h (3 Bft) 97,87 %
20.10.2020 09:14 9,2 C 8,9 C 7,2 C 86 % 1009,9 hPa 0,0 l/m 0 min 0 min 18 W/m 16,1 km/h (3 Bft) 97,83 %
20.10.2020 09:16 9,2 C 8,9 C 7,2 C 86 % 1010,1 hPa 0,0 l/m 0 min 0 min 24 W/m 19,3 km/h (3 Bft) 97,87 %
20.10.2020 09:18 9,3 C 8,9 C 7,2 C 86 % 1010,2 hPa 0,0 l/m 0 min 0 min 30 W/m 19,3 km/h (3 Bft) 97,87 %
20.10.2020 09:20 9,3 C 8,9 C 7,2 C 86 % 1010,3 hPa 0,0 l/m 0 min 0 min 37 W/m 19,3 km/h (3 Bft) 97,87 %
20.10.2020 09:22 9,3 C 8,9 C 7,2 C 86 % 1010,3 hPa 0,0 l/m 0 min 0 min 42 W/m 16,1 km/h (3 Bft) 97,62 %
20.10.2020 09:24 9,3 C 8,9 C 7,2 C 86 % 1010,3 hPa 0,0 l/m 0 min 0 min 47 W/m 16,1 km/h (3 Bft) 100,00 %
20.10.2020 09:26 9,3 C 8,9 C 7,2 C 86 % 1010,3 hPa 0,0 l/m 0 min 0 min 52 W/m 19,3 km/h (3 Bft) 100,00 %
20.10.2020 09:28 9,3 C 8,9 C 7,2 C 86 % 1010,3 hPa 0,0 l/m 0 min 0 min 55 W/m 12,9 km/h (3 Bft) 97,87 %
20.10.2020 09:30 9,3 C 8,9 C 7,2 C 86 % 1010,2 hPa 0,0 l/m 0 min 0 min 60 W/m 16,1 km/h (3 Bft) 100,00 %
20.10.2020 09:32 9,3 C 8,9 C 7,2 C 86 % 1010,2 hPa 0,0 l/m 0 min 0 min 64 W/m 22,5 km/h (4 Bft) 97,96 %
20.10.2020 09:34 9,3 C 9,4 C 7,8 C 87 % 1010,2 hPa 0,0 l/m 0 min 0 min 67 W/m 22,5 km/h (4 Bft) 100,00 %
20.10.2020 09:36 9,3 C 9,4 C 7,8 C 87 % 1010,1 hPa 0,0 l/m 0 min 0 min 66 W/m 12,9 km/h (3 Bft) 100,00 %
20.10.2020 09:38 9,3 C 9,4 C 7,8 C 87 % 1010,2 hPa 0,0 l/m 0 min 0 min 63 W/m 22,5 km/h (4 Bft) 97,62 %
20.10.2020 09:40 9,4 C 9,4 C 7,8 C 87 % 1010,2 hPa 0,0 l/m 0 min 0 min 63 W/m 19,3 km/h (3 Bft) 100,00 %
20.10.2020 09:42 9,4 C 9,4 C 7,8 C 87 % 1010,2 hPa 0,0 l/m 0 min 0 min 63 W/m 19,3 km/h (3 Bft) 100,00 %
20.10.2020 09:44 9,4 C 9,4 C 7,8 C 87 % 1010,3 hPa 0,0 l/m 0 min 0 min 64 W/m 22,5 km/h (4 Bft) 100,00 %
20.10.2020 09:46 9,4 C 9,4 C 7,8 C 87 % 1010,3 hPa 0,0 l/m 0 min 0 min 66 W/m 16,1 km/h (3 Bft) 100,00 %
20.10.2020 09:48 9,4 C 9,4 C 7,8 C 87 % 1010,4 hPa 0,0 l/m 0 min 0 min 69 W/m 16,1 km/h (3 Bft) 97,92 %
20.10.2020 09:50 9,4 C 9,4 C 7,8 C 87 % 1010,4 hPa 0,0 l/m 0 min 0 min 76 W/m 22,5 km/h (4 Bft) 97,87 %
20.10.2020 09:52 9,4 C 9,4 C 7,8 C 87 % 1010,4 hPa 0,0 l/m 0 min 0 min 86 W/m 22,5 km/h (4 Bft) 100,00 %
20.10.2020 09:54 9,5 C 9,4 C 7,8 C 87 % 1010,5 hPa 0,0 l/m 0 min 0 min 88 W/m 29,0 km/h (5 Bft) 100,00 %
20.10.2020 09:56 9,5 C 10,0 C 7,8 C 87 % 1010,5 hPa 0,0 l/m 2 min 0 min 123 W/m 19,3 km/h (3 Bft) 95,83 %
20.10.2020 09:58 9,5 C 10,0 C 7,8 C 87 % 1010,5 hPa 0,0 l/m 0 min 0 min 111 W/m 19,3 km/h (3 Bft) 97,56 %
20.10.2020 10:00 9,5 C 10,6 C 7,8 C 87 % 1010,5 hPa 0,0 l/m 0 min 0 min 125 W/m 16,1 km/h (3 Bft) 97,92 %
20.10.2020 10:02 9,6 C 10,6 C 8,4 C 87 % 1010,5 hPa 0,0 l/m 2 min 0 min 148 W/m 19,3 km/h (3 Bft) 97,96 %
20.10.2020 10:04 9,6 C 11,1 C 8,4 C 87 % 1010,5 hPa 0,0 l/m 2 min 0 min 170 W/m 22,5 km/h (4 Bft) 95,92 %
20.10.2020 10:06 9,6 C 11,1 C 8,4 C 87 % 1010,4 hPa 0,0 l/m 2 min 0 min 183 W/m 22,5 km/h (4 Bft) 97,87 %
20.10.2020 10:08 9,7 C 11,7 C 8,4 C 87 % 1010,4 hPa 0,0 l/m 2 min 0 min 223 W/m 29,0 km/h (5 Bft) 97,87 %
20.10.2020 10:10 9,8 C 11,7 C 8,4 C 87 % 1010,3 hPa 0,0 l/m 2 min 0 min 231 W/m 22,5 km/h (4 Bft) 97,37 %
20.10.2020 10:12 9,9 C 11,7 C 8,9 C 87 % 1010,2 hPa 0,0 l/m 2 min 0 min 200 W/m 19,3 km/h (3 Bft) 97,87 %
20.10.2020 10:14 9,9 C 11,7 C 8,9 C 87 % 1010,3 hPa 0,0 l/m 2 min 0 min 178 W/m 19,3 km/h (3 Bft) 97,87 %
20.10.2020 10:16 10,0 C 11,1 C 8,9 C 86 % 1010,3 hPa 0,0 l/m 2 min 0 min 152 W/m 32,2 km/h (5 Bft) 97,87 %
20.10.2020 10:18 10,0 C 10,6 C 8,9 C 86 % 1010,2 hPa 0,0 l/m 0 min 0 min 113 W/m 22,5 km/h (4 Bft) 97,92 %
20.10.2020 10:20 10,1 C 10,6 C 8,4 C 86 % 1010,3 hPa 0,0 l/m 0 min 0 min 93 W/m 35,4 km/h (5 Bft) 97,87 %
20.10.2020 10:22 10,1 C 10,0 C 8,4 C 86 % 1010,3 hPa 0,0 l/m 0 min 0 min 87 W/m 22,5 km/h (4 Bft) 97,56 %
20.10.2020 10:24 10,2 C 10,0 C 8,4 C 86 % 1010,3 hPa 0,0 l/m 0 min 0 min 83 W/m 25,7 km/h (4 Bft) 97,92 %
20.10.2020 10:26 10,2 C 10,0 C 8,4 C 86 % 1010,4 hPa 0,0 l/m 0 min 0 min 76 W/m 22,5 km/h (4 Bft) 97,87 %
20.10.2020 10:28 10,3 C 10,0 C 8,4 C 85 % 1010,3 hPa 0,0 l/m 0 min 0 min 70 W/m 22,5 km/h (4 Bft) 93,75 %
20.10.2020 10:30 10,3 C 10,0 C 8,4 C 85 % 1010,2 hPa 0,0 l/m 0 min 0 min 67 W/m 22,5 km/h (4 Bft) 97,92 %
20.10.2020 10:32 10,3 C 10,0 C 8,4 C 85 % 1010,3 hPa 0,0 l/m 0 min 0 min 67 W/m 16,1 km/h (3 Bft) 97,92 %
20.10.2020 10:34 10,3 C 10,0 C 8,4 C 85 % 1010,2 hPa 0,0 l/m 0 min 0 min 70 W/m 22,5 km/h (4 Bft) 97,87 %
20.10.2020 10:36 10,3 C 10,0 C 8,4 C 85 % 1010,2 hPa 0,0 l/m 0 min 0 min 75 W/m 19,3 km/h (3 Bft) 97,83 %
20.10.2020 10:38 10,3 C 10,0 C 8,4 C 85 % 1010,2 hPa 0,0 l/m 0 min 0 min 74 W/m 22,5 km/h (4 Bft) 95,74 %
20.10.2020 10:40 10,3 C 10,0 C 8,4 C 85 % 1010,2 hPa 0,0 l/m 0 min 0 min 70 W/m 25,7 km/h (4 Bft) 98,00 %
20.10.2020 10:42 10,3 C 10,0 C 8,4 C 85 % 1010,2 hPa 0,0 l/m 0 min 0 min 64 W/m 19,3 km/h (3 Bft) 97,87 %
20.10.2020 10:44 10,3 C 10,0 C 8,4 C 85 % 1010,2 hPa 0,0 l/m 0 min 0 min 55 W/m 19,3 km/h (3 Bft) 97,87 %
20.10.2020 10:46 10,4 C 10,0 C 8,4 C 85 % 1010,2 hPa 0,0 l/m 0 min 0 min 51 W/m 25,7 km/h (4 Bft) 100,00 %
20.10.2020 10:48 10,4 C 10,0 C 8,4 C 85 % 1010,2 hPa 0,0 l/m 0 min 0 min 51 W/m 19,3 km/h (3 Bft) 95,12 %
20.10.2020 10:50 10,4 C 10,0 C 8,4 C 85 % 1010,1 hPa 0,0 l/m 0 min 0 min 51 W/m 12,9 km/h (3 Bft) 97,87 %
20.10.2020 10:52 10,4 C 10,0 C 8,4 C 85 % 1010,2 hPa 0,0 l/m 0 min 0 min 52 W/m 16,1 km/h (3 Bft) 93,75 %
20.10.2020 10:54 10,4 C 10,0 C 7,8 C 86 % 1010,3 hPa 0,0 l/m 0 min 2 min 49 W/m 19,3 km/h (3 Bft) 97,92 %
20.10.2020 10:56 10,4 C 9,4 C 7,8 C 86 % 1010,3 hPa 0,0 l/m 0 min 2 min 43 W/m 19,3 km/h (3 Bft) 97,92 %
20.10.2020 10:58 10,4 C 9,4 C 7,2 C 86 % 1010,4 hPa 0,0 l/m 0 min 2 min 40 W/m 12,9 km/h (3 Bft) 95,83 %
20.10.2020 11:00 10,4 C 8,9 C 7,2 C 86 % 1010,4 hPa 0,0 l/m 0 min 2 min 40 W/m 12,9 km/h (3 Bft) 95,74 %
20.10.2020 11:02 10,4 C 8,9 C 7,2 C 86 % 1010,5 hPa 0,0 l/m 0 min 2 min 40 W/m 12,9 km/h (3 Bft) 95,74 %
20.10.2020 11:04 10,4 C 8,9 C 7,2 C 87 % 1010,5 hPa 0,0 l/m 0 min 2 min 39 W/m 16,1 km/h (3 Bft) 97,67 %
20.10.2020 11:06 10,4 C 8,3 C 7,2 C 87 % 1010,5 hPa 0,0 l/m 0 min 2 min 41 W/m 19,3 km/h (3 Bft) 95,83 %
20.10.2020 11:08 10,4 C 8,3 C 7,2 C 87 % 1010,5 hPa 0,0 l/m 0 min 0 min 47 W/m 16,1 km/h (3 Bft) 95,83 %
20.10.2020 11:10 10,4 C 8,9 C 7,2 C 87 % 1010,5 hPa 0,0 l/m 0 min 0 min 53 W/m 12,9 km/h (3 Bft) 97,92 %
20.10.2020 11:12 10,4 C 8,9 C 7,2 C 87 % 1010,5 hPa 0,0 l/m 0 min 0 min 64 W/m 16,1 km/h (3 Bft) 97,87 %
20.10.2020 11:14 10,4 C 9,4 C 7,2 C 87 % 1010,5 hPa 0,0 l/m 0 min 2 min 80 W/m 16,1 km/h (3 Bft) 97,87 %
20.10.2020 11:16 10,4 C 9,4 C 7,2 C 88 % 1010,4 hPa 0,0 l/m 0 min 0 min 102 W/m 19,3 km/h (3 Bft) 95,74 %
20.10.2020 11:18 10,4 C 9,4 C 7,2 C 88 % 1010,3 hPa 0,0 l/m 0 min 2 min 116 W/m 16,1 km/h (3 Bft) 95,74 %
20.10.2020 11:20 10,4 C 9,4 C 7,8 C 88 % 1010,3 hPa 0,0 l/m 0 min 0 min 121 W/m 22,5 km/h (4 Bft) 97,56 %
20.10.2020 11:22 10,4 C 9,4 C 7,8 C 88 % 1010,3 hPa 0,0 l/m 0 min 0 min 125 W/m 16,1 km/h (3 Bft) 97,96 %
20.10.2020 11:24 10,4 C 9,4 C 7,8 C 88 % 1010,3 hPa 0,0 l/m 0 min 0 min 121 W/m 25,7 km/h (4 Bft) 95,74 %
20.10.2020 11:26 10,4 C 9,4 C 7,8 C 88 % 1010,4 hPa 0,0 l/m 0 min 0 min 107 W/m 22,5 km/h (4 Bft) 93,75 %
20.10.2020 11:28 10,4 C 9,4 C 7,8 C 88 % 1010,5 hPa 0,0 l/m 0 min 0 min 79 W/m 19,3 km/h (3 Bft) 97,92 %
20.10.2020 11:30 10,4 C 9,4 C 7,8 C 88 % 1010,5 hPa 0,0 l/m 0 min 0 min 68 W/m 29,0 km/h (5 Bft) 97,92 %
20.10.2020 11:32 10,4 C 10,0 C 7,8 C 89 % 1010,4 hPa 0,0 l/m 0 min 0 min 74 W/m 16,1 km/h (3 Bft) 97,92 %
20.10.2020 11:34 10,4 C 10,0 C 7,8 C 89 % 1010,5 hPa 0,0 l/m 0 min 0 min 67 W/m 19,3 km/h (3 Bft) 95,74 %
20.10.2020 11:36 10,4 C 10,0 C 7,8 C 89 % 1010,4 hPa 0,0 l/m 0 min 0 min 49 W/m 19,3 km/h (3 Bft) 95,74 %
20.10.2020 11:38 10,4 C 10,0 C 8,4 C 89 % 1010,5 hPa 0,0 l/m 0 min 0 min 39 W/m 19,3 km/h (3 Bft) 97,62 %
20.10.2020 11:40 10,4 C 10,0 C 8,4 C 89 % 1010,5 hPa 0,0 l/m 0 min 0 min 35 W/m 22,5 km/h (4 Bft) 98,18 %
20.10.2020 11:42 10,4 C 9,4 C 8,4 C 89 % 1010,4 hPa 0,0 l/m 0 min 0 min 42 W/m 19,3 km/h (3 Bft) 95,24 %
20.10.2020 11:44 10,4 C 9,4 C 8,4 C 89 % 1010,4 hPa 0,0 l/m 0 min 0 min 50 W/m 35,4 km/h (5 Bft) 95,83 %
20.10.2020 11:46 10,4 C 10,0 C 8,4 C 89 % 1010,6 hPa 0,0 l/m 0 min 0 min 53 W/m 22,5 km/h (4 Bft) 97,87 %
20.10.2020 11:48 10,4 C 10,0 C 8,4 C 89 % 1010,6 hPa 0,0 l/m 0 min 0 min 60 W/m 22,5 km/h (4 Bft) 97,92 %
20.10.2020 11:50 10,5 C 10,0 C 8,4 C 89 % 1010,6 hPa 0,0 l/m 0 min 0 min 72 W/m 16,1 km/h (3 Bft) 97,92 %
20.10.2020 11:52 10,5 C 10,0 C 8,4 C 89 % 1010,6 hPa 0,0 l/m 0 min 0 min 72 W/m 41,8 km/h (6 Bft) 97,92 %
20.10.2020 11:54 10,5 C 10,0 C 8,4 C 89 % 1010,6 hPa 0,0 l/m 0 min 0 min 64 W/m 19,3 km/h (3 Bft) 97,92 %
20.10.2020 11:56 10,5 C 10,0 C 8,9 C 89 % 1010,6 hPa 0,0 l/m 0 min 0 min 63 W/m 25,7 km/h (4 Bft) 97,83 %
20.10.2020 11:58 10,5 C 10,0 C 8,9 C 89 % 1010,5 hPa 0,0 l/m 0 min 0 min 66 W/m 19,3 km/h (3 Bft) 96,77 %
20.10.2020 12:00 10,5 C 10,0 C 8,9 C 89 % 1010,3 hPa 0,0 l/m 0 min 0 min 64 W/m 19,3 km/h (3 Bft) 97,87 %
20.10.2020 12:02 10,5 C 10,0 C 8,9 C 89 % 1010,4 hPa 0,0 l/m 0 min 0 min 60 W/m 16,1 km/h (3 Bft) 94,00 %
20.10.2020 12:04 10,5 C 10,0 C 8,9 C 89 % 1010,4 hPa 0,0 l/m 0 min 0 min 58 W/m 19,3 km/h (3 Bft) 97,92 %
20.10.2020 12:08 10,6 C 10,0 C 8,9 C 89 % 1010,4 hPa 0,0 l/m 0 min 0 min 54 W/m 22,5 km/h (4 Bft) 98,10 %
20.10.2020 12:10 10,6 C 10,6 C 8,9 C 89 % 1010,3 hPa 0,0 l/m 0 min 0 min 53 W/m 25,7 km/h (4 Bft) 94,29 %
20.10.2020 12:12 10,6 C 10,6 C 8,9 C 89 % 1010,4 hPa 0,0 l/m 0 min 0 min 55 W/m 19,3 km/h (3 Bft) 95,24 %
20.10.2020 12:14 10,6 C 10,6 C 8,9 C 89 % 1010,5 hPa 0,0 l/m 0 min 0 min 54 W/m 19,3 km/h (3 Bft) 98,31 %
20.10.2020 12:16 10,6 C 10,6 C 8,9 C 89 % 1010,5 hPa 0,0 l/m 0 min 0 min 56 W/m 16,1 km/h (3 Bft) 95,83 %
20.10.2020 12:18 10,7 C 10,6 C 8,9 C 89 % 1010,5 hPa 0,0 l/m 0 min 0 min 57 W/m 19,3 km/h (3 Bft) 97,87 %
20.10.2020 12:20 10,7 C 10,6 C 8,9 C 89 % 1010,6 hPa 0,0 l/m 0 min 0 min 57 W/m 19,3 km/h (3 Bft) 97,83 %
20.10.2020 12:22 10,8 C 10,6 C 9,5 C 89 % 1010,5 hPa 0,0 l/m 0 min 0 min 66 W/m 22,5 km/h (4 Bft) 100,00 %
20.10.2020 12:24 10,8 C 10,6 C 9,5 C 89 % 1010,4 hPa 0,0 l/m 0 min 0 min 72 W/m 19,3 km/h (3 Bft) 100,00 %
20.10.2020 12:26 10,8 C 10,6 C 9,5 C 89 % 1010,5 hPa 0,0 l/m 0 min 0 min 70 W/m 19,3 km/h (3 Bft) 100,00 %
20.10.2020 12:28 10,8 C 10,6 C 9,5 C 90 % 1010,5 hPa 0,0 l/m 0 min 0 min 68 W/m 19,3 km/h (3 Bft) 100,00 %
20.10.2020 12:30 10,9 C 11,1 C 9,5 C 90 % 1010,6 hPa 0,0 l/m 0 min 0 min 57 W/m 29,0 km/h (5 Bft) 100,00 %
20.10.2020 12:32 10,9 C 11,1 C 9,5 C 90 % 1010,6 hPa 0,0 l/m 0 min 0 min 49 W/m 25,7 km/h (4 Bft) 100,00 %
20.10.2020 12:34 10,9 C 11,1 C 9,5 C 90 % 1010,6 hPa 0,0 l/m 0 min 0 min 47 W/m 19,3 km/h (3 Bft) 100,00 %
20.10.2020 12:36 10,9 C 11,1 C 9,5 C 90 % 1010,7 hPa 0,0 l/m 0 min 0 min 57 W/m 16,1 km/h (3 Bft) 100,00 %
20.10.2020 12:38 11,0 C 11,1 C 9,5 C 90 % 1010,6 hPa 0,0 l/m 0 min 0 min 73 W/m 19,3 km/h (3 Bft) 100,00 %
20.10.2020 12:40 11,0 C 11,1 C 9,5 C 90 % 1010,5 hPa 0,0 l/m 0 min 0 min 85 W/m 16,1 km/h (3 Bft) 100,00 %
20.10.2020 12:42 11,0 C 11,1 C 9,5 C 90 % 1010,6 hPa 0,0 l/m 0 min 0 min 92 W/m 16,1 km/h (3 Bft) 100,00 %
20.10.2020 12:44 11,1 C 11,1 C 9,5 C 90 % 1010,5 hPa 0,0 l/m 0 min 2 min 99 W/m 16,1 km/h (3 Bft) 100,00 %
20.10.2020 12:46 11,1 C 10,6 C 8,9 C 90 % 1010,5 hPa 0,0 l/m 0 min 2 min 93 W/m 19,3 km/h (3 Bft) 97,87 %
20.10.2020 12:48 11,1 C 10,6 C 8,9 C 90 % 1010,5 hPa 0,0 l/m 0 min 2 min 88 W/m 19,3 km/h (3 Bft) 100,00 %
20.10.2020 12:50 11,2 C 10,0 C 8,9 C 90 % 1010,4 hPa 0,0 l/m 0 min 2 min 86 W/m 22,5 km/h (4 Bft) 100,00 %
20.10.2020 12:52 11,3 C 10,0 C 8,9 C 90 % 1010,4 hPa 0,0 l/m 0 min 2 min 92 W/m 16,1 km/h (3 Bft) 100,00 %
20.10.2020 12:54 11,3 C 10,0 C 8,9 C 90 % 1010,5 hPa 0,0 l/m 0 min 2 min 100 W/m 25,7 km/h (4 Bft) 100,00 %
20.10.2020 12:56 11,3 C 10,0 C 8,9 C 90 % 1010,4 hPa 0,0 l/m 0 min 2 min 99 W/m 29,0 km/h (5 Bft) 95,12 %
20.10.2020 12:58 11,3 C 10,0 C 8,9 C 90 % 1010,3 hPa 0,0 l/m 0 min 0 min 95 W/m 29,0 km/h (5 Bft) 100,00 %
20.10.2020 13:00 11,3 C 10,0 C 8,9 C 90 % 1010,2 hPa 0,0 l/m 0 min 0 min 90 W/m 16,1 km/h (3 Bft) 100,00 %
20.10.2020 13:02 11,4 C 10,0 C 8,9 C 90 % 1010,1 hPa 0,0 l/m 0 min 0 min 76 W/m 22,5 km/h (4 Bft) 100,00 %
20.10.2020 13:04 11,4 C 10,0 C 8,9 C 90 % 1010,1 hPa 0,0 l/m 0 min 0 min 60 W/m 19,3 km/h (3 Bft) 97,56 %
20.10.2020 13:06 11,4 C 10,0 C 8,9 C 90 % 1010,0 hPa 0,0 l/m 0 min 0 min 61 W/m 19,3 km/h (3 Bft) 100,00 %
20.10.2020 13:08 11,4 C 10,0 C 8,9 C 90 % 1010,0 hPa 0,0 l/m 0 min 0 min 71 W/m 35,4 km/h (5 Bft) 97,92 %
20.10.2020 13:10 11,4 C 10,0 C 8,9 C 91 % 1010,0 hPa 0,0 l/m 0 min 0 min 81 W/m 22,5 km/h (4 Bft) 100,00 %
20.10.2020 13:12 11,4 C 10,6 C 8,9 C 91 % 1010,0 hPa 0,0 l/m 0 min 0 min 89 W/m 12,9 km/h (3 Bft) 95,83 %
20.10.2020 13:14 11,4 C 10,6 C 9,5 C 91 % 1010,0 hPa 0,0 l/m 0 min 0 min 93 W/m 25,7 km/h (4 Bft) 97,92 %
20.10.2020 13:16 11,4 C 10,6 C 9,5 C 91 % 1010,0 hPa 0,0 l/m 0 min 0 min 93 W/m 12,9 km/h (3 Bft) 97,92 %
20.10.2020 13:18 11,5 C 10,6 C 9,5 C 91 % 1010,0 hPa 0,0 l/m 0 min 0 min 91 W/m 19,3 km/h (3 Bft) 97,87 %
20.10.2020 13:20 11,5 C 11,1 C 9,5 C 91 % 1010,0 hPa 0,0 l/m 0 min 0 min 96 W/m 32,2 km/h (5 Bft) 97,83 %
20.10.2020 13:22 11,5 C 11,1 C 9,5 C 91 % 1010,0 hPa 0,0 l/m 0 min 0 min 98 W/m 16,1 km/h (3 Bft) 97,87 %
20.10.2020 13:24 11,5 C 11,1 C 9,5 C 91 % 1009,9 hPa 0,0 l/m 0 min 0 min 98 W/m 19,3 km/h (3 Bft) 97,87 %
20.10.2020 13:26 11,5 C 11,1 C 10,0 C 91 % 1009,9 hPa 0,0 l/m 0 min 0 min 88 W/m 16,1 km/h (3 Bft) 97,87 %
20.10.2020 13:28 11,6 C 11,1 C 9,5 C 91 % 1010,0 hPa 0,0 l/m 0 min 0 min 70 W/m 22,5 km/h (4 Bft) 95,12 %
20.10.2020 13:30 11,6 C 11,1 C 9,5 C 91 % 1009,9 hPa 0,0 l/m 0 min 0 min 58 W/m 16,1 km/h (3 Bft) 91,67 %
20.10.2020 13:32 11,6 C 11,1 C 9,5 C 90 % 1009,9 hPa 0,0 l/m 0 min 0 min 56 W/m 19,3 km/h (3 Bft) 95,83 %
20.10.2020 13:34 11,6 C 11,7 C 10,0 C 90 % 1009,9 hPa 0,0 l/m 0 min 0 min 69 W/m 16,1 km/h (3 Bft) 93,75 %
20.10.2020 13:36 11,6 C 11,7 C 10,0 C 90 % 1009,8 hPa 0,0 l/m 0 min 0 min 99 W/m 19,3 km/h (3 Bft) 92,86 %
20.10.2020 13:38 11,7 C 11,7 C 10,0 C 90 % 1009,9 hPa 0,0 l/m 0 min 0 min 103 W/m 32,2 km/h (5 Bft) 95,12 %
20.10.2020 13:40 11,7 C 11,7 C 10,0 C 90 % 1009,9 hPa 0,0 l/m 0 min 0 min 87 W/m 22,5 km/h (4 Bft) 95,83 %
20.10.2020 13:42 11,8 C 11,7 C 10,0 C 90 % 1009,9 hPa 0,0 l/m 0 min 0 min 74 W/m 16,1 km/h (3 Bft) 93,75 %
20.10.2020 13:44 11,8 C 11,7 C 10,0 C 90 % 1009,8 hPa 0,0 l/m 0 min 0 min 72 W/m 25,7 km/h (4 Bft) 91,49 %
20.10.2020 13:46 11,8 C 11,7 C 10,0 C 90 % 1009,8 hPa 0,0 l/m 0 min 0 min 74 W/m 12,9 km/h (3 Bft) 95,83 %
20.10.2020 13:48 11,9 C 11,7 C 10,0 C 90 % 1009,9 hPa 0,0 l/m 0 min 0 min 72 W/m 12,9 km/h (3 Bft) 93,75 %
20.10.2020 13:50 11,9 C 11,7 C 10,0 C 90 % 1009,8 hPa 0,0 l/m 0 min 0 min 64 W/m 19,3 km/h (3 Bft) 93,75 %
20.10.2020 13:52 11,9 C 11,7 C 10,0 C 90 % 1009,9 hPa 0,0 l/m 0 min 2 min 64 W/m 22,5 km/h (4 Bft) 95,65 %
20.10.2020 13:54 11,9 C 11,7 C 10,0 C 90 % 1009,8 hPa 0,0 l/m 0 min 2 min 71 W/m 19,3 km/h (3 Bft) 95,24 %
20.10.2020 13:56 12,0 C 11,7 C 10,0 C 90 % 1009,8 hPa 0,0 l/m 0 min 2 min 86 W/m 19,3 km/h (3 Bft) 93,62 %
20.10.2020 13:58 12,0 C 11,1 C 10,0 C 90 % 1009,8 hPa 0,0 l/m 0 min 2 min 100 W/m 16,1 km/h (3 Bft) 96,00 %
20.10.2020 14:00 12,0 C 11,1 C 10,0 C 90 % 1009,8 hPa 0,0 l/m 0 min 2 min 91 W/m 22,5 km/h (4 Bft) 93,75 %
20.10.2020 14:02 12,0 C 11,1 C 10,0 C 90 % 1009,8 hPa 0,0 l/m 0 min 2 min 78 W/m 19,3 km/h (3 Bft) 95,83 %
20.10.2020 14:04 12,1 C 11,1 C 10,0 C 90 % 1009,8 hPa 0,0 l/m 0 min 2 min 84 W/m 22,5 km/h (4 Bft) 95,65 %
20.10.2020 14:06 12,1 C 11,1 C 10,0 C 90 % 1009,8 hPa 0,0 l/m 0 min 2 min 98 W/m 19,3 km/h (3 Bft) 95,12 %
20.10.2020 14:08 12,1 C 11,1 C 10,0 C 90 % 1009,8 hPa 0,0 l/m 0 min 2 min 104 W/m 22,5 km/h (4 Bft) 95,83 %
20.10.2020 14:10 12,1 C 11,1 C 9,5 C 90 % 1009,8 hPa 0,2 l/m 0 min 2 min 97 W/m 22,5 km/h (4 Bft) 100,00 %
20.10.2020 14:12 12,2 C 11,1 C 9,5 C 90 % 1009,8 hPa 0,0 l/m 0 min 2 min 94 W/m 19,3 km/h (3 Bft) 97,92 %
20.10.2020 14:14 12,2 C 11,1 C 9,5 C 90 % 1009,7 hPa 0,0 l/m 0 min 0 min 97 W/m 19,3 km/h (3 Bft) 97,92 %
20.10.2020 14:16 12,2 C 11,1 C 9,5 C 90 % 1009,6 hPa 0,0 l/m 0 min 2 min 98 W/m 19,3 km/h (3 Bft) 95,74 %
20.10.2020 14:18 12,3 C 11,1 C 10,0 C 90 % 1009,5 hPa 0,0 l/m 0 min 0 min 98 W/m 25,7 km/h (4 Bft) 100,00 %
20.10.2020 14:20 12,3 C 11,7 C 10,0 C 90 % 1009,6 hPa 0,0 l/m 0 min 0 min 97 W/m 19,3 km/h (3 Bft) 100,00 %
20.10.2020 14:22 12,3 C 11,7 C 10,0 C 91 % 1009,7 hPa 0,0 l/m 0 min 0 min 94 W/m 19,3 km/h (3 Bft) 97,87 %
20.10.2020 14:24 12,3 C 11,7 C 10,0 C 91 % 1009,6 hPa 0,0 l/m 0 min 0 min 91 W/m 22,5 km/h (4 Bft) 95,12 %
20.10.2020 14:26 12,3 C 12,2 C 10,0 C 90 % 1009,6 hPa 0,0 l/m 0 min 0 min 82 W/m 19,3 km/h (3 Bft) 95,83 %
20.10.2020 14:28 12,3 C 12,2 C 10,0 C 90 % 1009,6 hPa 0,0 l/m 0 min 0 min 78 W/m 22,5 km/h (4 Bft) 97,92 %
20.10.2020 14:30 12,3 C 12,2 C 10,0 C 90 % 1009,6 hPa 0,0 l/m 0 min 0 min 88 W/m 25,7 km/h (4 Bft) 97,87 %
20.10.2020 14:32 12,4 C 12,2 C 10,0 C 90 % 1009,7 hPa 0,0 l/m 0 min 0 min 95 W/m 25,7 km/h (4 Bft) 95,92 %
20.10.2020 14:34 12,4 C 12,2 C 10,0 C 90 % 1009,7 hPa 0,0 l/m 0 min 0 min 92 W/m 19,3 km/h (3 Bft) 95,74 %
20.10.2020 14:36 12,4 C 12,2 C 10,6 C 90 % 1009,7 hPa 0,0 l/m 0 min 0 min 76 W/m 32,2 km/h (5 Bft) 97,92 %
20.10.2020 14:38 12,4 C 12,2 C 10,6 C 90 % 1009,7 hPa 0,0 l/m 0 min 0 min 77 W/m 19,3 km/h (3 Bft) 95,83 %
20.10.2020 14:40 12,4 C 12,2 C 10,6 C 90 % 1009,7 hPa 0,0 l/m 0 min 0 min 82 W/m 22,5 km/h (4 Bft) 97,83 %
20.10.2020 14:42 12,5 C 12,2 C 10,6 C 90 % 1009,7 hPa 0,0 l/m 0 min 0 min 86 W/m 16,1 km/h (3 Bft) 95,74 %
20.10.2020 14:44 12,5 C 12,2 C 10,6 C 90 % 1009,6 hPa 0,0 l/m 0 min 0 min 85 W/m 25,7 km/h (4 Bft) 97,56 %
20.10.2020 14:46 12,5 C 12,2 C 10,6 C 90 % 1009,6 hPa 0,0 l/m 0 min 0 min 83 W/m 19,3 km/h (3 Bft) 97,92 %
20.10.2020 14:48 12,5 C 12,2 C 10,6 C 89 % 1009,5 hPa 0,0 l/m 0 min 2 min 83 W/m 22,5 km/h (4 Bft) 97,92 %
20.10.2020 14:50 12,5 C 12,2 C 10,6 C 89 % 1009,5 hPa 0,0 l/m 0 min 0 min 84 W/m 16,1 km/h (3 Bft) 97,92 %
20.10.2020 14:52 12,5 C 12,2 C 10,6 C 89 % 1009,5 hPa 0,0 l/m 0 min 0 min 85 W/m 12,9 km/h (3 Bft) 97,87 %
20.10.2020 14:54 12,6 C 12,2 C 10,6 C 89 % 1009,5 hPa 0,0 l/m 0 min 0 min 84 W/m 35,4 km/h (5 Bft) 95,83 %
20.10.2020 14:56 12,6 C 12,2 C 10,6 C 89 % 1009,5 hPa 0,0 l/m 0 min 0 min 81 W/m 16,1 km/h (3 Bft) 95,83 %
20.10.2020 14:58 12,6 C 12,2 C 10,6 C 89 % 1009,5 hPa 0,0 l/m 0 min 2 min 80 W/m 16,1 km/h (3 Bft) 97,87 %
20.10.2020 15:00 12,6 C 12,2 C 10,6 C 89 % 1009,4 hPa 0,0 l/m 0 min 0 min 84 W/m 19,3 km/h (3 Bft) 95,74 %
20.10.2020 15:02 12,6 C 12,2 C 11,1 C 89 % 1009,4 hPa 0,0 l/m 0 min 0 min 91 W/m 19,3 km/h (3 Bft) 100,00 %
20.10.2020 15:04 12,7 C 12,8 C 11,1 C 89 % 1009,4 hPa 0,0 l/m 0 min 0 min 97 W/m 16,1 km/h (3 Bft) 95,92 %
20.10.2020 15:06 12,7 C 12,8 C 11,1 C 89 % 1009,4 hPa 0,0 l/m 0 min 0 min 94 W/m 19,3 km/h (3 Bft) 97,92 %
20.10.2020 15:08 12,8 C 12,8 C 11,1 C 89 % 1009,4 hPa 0,0 l/m 0 min 0 min 91 W/m 19,3 km/h (3 Bft) 97,92 %
20.10.2020 15:10 12,8 C 12,8 C 11,1 C 89 % 1009,5 hPa 0,0 l/m 0 min 0 min 91 W/m 16,1 km/h (3 Bft) 97,87 %
20.10.2020 15:12 12,8 C 12,8 C 10,6 C 89 % 1009,5 hPa 0,0 l/m 0 min 2 min 92 W/m 12,9 km/h (3 Bft) 97,87 %
20.10.2020 15:14 12,8 C 12,8 C 10,6 C 89 % 1009,5 hPa 0,0 l/m 0 min 2 min 95 W/m 25,7 km/h (4 Bft) 97,56 %
20.10.2020 15:16 12,9 C 12,2 C 10,6 C 89 % 1009,5 hPa 0,0 l/m 0 min 2 min 97 W/m 19,3 km/h (3 Bft) 97,87 %
20.10.2020 15:18 12,9 C 12,2 C 10,6 C 89 % 1009,5 hPa 0,0 l/m 0 min 2 min 96 W/m 22,5 km/h (4 Bft) 97,92 %
20.10.2020 15:20 12,9 C 11,7 C 10,6 C 89 % 1009,5 hPa 0,0 l/m 0 min 2 min 89 W/m 19,3 km/h (3 Bft) 100,00 %
20.10.2020 15:22 12,9 C 11,7 C 10,0 C 89 % 1009,4 hPa 0,0 l/m 0 min 0 min 83 W/m 25,7 km/h (4 Bft) 97,92 %
20.10.2020 15:24 13,0 C 11,7 C 10,0 C 89 % 1009,4 hPa 0,0 l/m 0 min 2 min 79 W/m 16,1 km/h (3 Bft) 100,00 %
20.10.2020 15:26 13,0 C 11,7 C 10,0 C 89 % 1009,5 hPa 0,0 l/m 0 min 0 min 76 W/m 12,9 km/h (3 Bft) 100,00 %
20.10.2020 15:28 13,0 C 11,7 C 10,0 C 89 % 1009,5 hPa 0,0 l/m 0 min 2 min 70 W/m 22,5 km/h (4 Bft) 100,00 %
20.10.2020 15:30 13,0 C 11,7 C 10,6 C 89 % 1009,5 hPa 0,0 l/m 0 min 2 min 65 W/m 19,3 km/h (3 Bft) 100,00 %
20.10.2020 15:32 13,0 C 12,2 C 10,6 C 89 % 1009,5 hPa 0,0 l/m 0 min 0 min 67 W/m 25,7 km/h (4 Bft) 97,87 %
20.10.2020 15:34 13,0 C 12,2 C 10,6 C 89 % 1009,6 hPa 0,0 l/m 0 min 0 min 66 W/m 19,3 km/h (3 Bft) 100,00 %
20.10.2020 15:36 13,0 C 12,2 C 10,6 C 89 % 1009,6 hPa 0,0 l/m 0 min 0 min 67 W/m 22,5 km/h (4 Bft) 100,00 %
20.10.2020 15:38 13,0 C 12,2 C 10,6 C 89 % 1009,6 hPa 0,0 l/m 0 min 0 min 65 W/m 16,1 km/h (3 Bft) 100,00 %
20.10.2020 15:40 13,0 C 12,2 C 10,6 C 89 % 1009,6 hPa 0,0 l/m 0 min 0 min 61 W/m 22,5 km/h (4 Bft) 100,00 %
20.10.2020 15:42 13,0 C 12,2 C 10,6 C 89 % 1009,6 hPa 0,0 l/m 0 min 0 min 58 W/m 19,3 km/h (3 Bft) 97,56 %
20.10.2020 15:44 13,0 C 12,2 C 10,6 C 89 % 1009,7 hPa 0,0 l/m 0 min 0 min 54 W/m 19,3 km/h (3 Bft) 100,00 %
20.10.2020 15:46 13,0 C 12,2 C 10,6 C 89 % 1009,8 hPa 0,0 l/m 0 min 0 min 50 W/m 22,5 km/h (4 Bft) 97,92 %
20.10.2020 15:48 13,0 C 12,2 C 10,6 C 89 % 1009,7 hPa 0,0 l/m 0 min 0 min 48 W/m 25,7 km/h (4 Bft) 100,00 %
20.10.2020 15:50 13,0 C 12,2 C 10,6 C 89 % 1009,7 hPa 0,0 l/m 0 min 0 min 47 W/m 25,7 km/h (4 Bft) 100,00 %
20.10.2020 15:52 13,0 C 11,7 C 10,6 C 89 % 1009,7 hPa 0,0 l/m 0 min 2 min 48 W/m 29,0 km/h (5 Bft) 100,00 %
20.10.2020 15:54 13,0 C 11,7 C 10,6 C 89 % 1009,7 hPa 0,0 l/m 0 min 2 min 50 W/m 12,9 km/h (3 Bft) 100,00 %
20.10.2020 15:56 13,0 C 11,7 C 10,6 C 89 % 1009,8 hPa 0,0 l/m 0 min 2 min 53 W/m 19,3 km/h (3 Bft) 100,00 %
20.10.2020 15:58 13,0 C 11,7 C 10,6 C 89 % 1009,8 hPa 0,0 l/m 0 min 2 min 51 W/m 12,9 km/h (3 Bft) 100,00 %
20.10.2020 16:00 13,0 C 11,7 C 10,6 C 90 % 1009,9 hPa 0,0 l/m 0 min 2 min 51 W/m 16,1 km/h (3 Bft) 100,00 %
20.10.2020 16:02 13,0 C 11,7 C 10,6 C 90 % 1009,9 hPa 0,0 l/m 0 min 2 min 50 W/m 19,3 km/h (3 Bft) 100,00 %
20.10.2020 16:04 13,0 C 11,7 C 10,6 C 90 % 1010,0 hPa 0,0 l/m 0 min 2 min 45 W/m 16,1 km/h (3 Bft) 97,87 %
20.10.2020 16:06 13,0 C 11,7 C 10,6 C 90 % 1010,0 hPa 0,0 l/m 0 min 2 min 41 W/m 16,1 km/h (3 Bft) 97,87 %
20.10.2020 16:08 13,0 C 11,7 C 10,0 C 90 % 1010,0 hPa 0,0 l/m 0 min 2 min 37 W/m 16,1 km/h (3 Bft) 95,74 %
20.10.2020 16:10 12,9 C 11,7 C 10,0 C 90 % 1010,1 hPa 0,0 l/m 0 min 2 min 33 W/m 16,1 km/h (3 Bft) 97,87 %
20.10.2020 16:12 12,9 C 11,1 C 10,0 C 90 % 1010,1 hPa 0,0 l/m 0 min 2 min 26 W/m 19,3 km/h (3 Bft) 97,87 %
20.10.2020 16:14 12,9 C 11,1 C 10,0 C 90 % 1010,1 hPa 0,0 l/m 0 min 2 min 24 W/m 16,1 km/h (3 Bft) 97,56 %
20.10.2020 16:16 12,9 C 11,1 C 10,0 C 90 % 1010,1 hPa 0,0 l/m 0 min 2 min 27 W/m 6,4 km/h (2 Bft) 97,87 %
20.10.2020 16:18 12,9 C 11,1 C 10,0 C 90 % 1010,1 hPa 0,0 l/m 0 min 2 min 34 W/m 6,4 km/h (2 Bft) 95,83 %
20.10.2020 16:20 12,9 C 11,1 C 10,0 C 90 % 1010,1 hPa 0,0 l/m 0 min 2 min 37 W/m 19,3 km/h (3 Bft) 97,92 %
20.10.2020 16:22 12,9 C 11,1 C 10,0 C 90 % 1010,1 hPa 0,0 l/m 0 min 2 min 35 W/m 16,1 km/h (3 Bft) 93,88 %
20.10.2020 16:24 12,9 C 11,1 C 10,0 C 91 % 1010,1 hPa 0,0 l/m 0 min 2 min 33 W/m 16,1 km/h (3 Bft) 97,92 %
20.10.2020 16:26 12,9 C 11,1 C 10,0 C 91 % 1010,1 hPa 0,0 l/m 0 min 2 min 31 W/m 16,1 km/h (3 Bft) 97,83 %
20.10.2020 16:28 12,9 C 11,1 C 10,0 C 91 % 1010,2 hPa 0,0 l/m 0 min 0 min 31 W/m 19,3 km/h (3 Bft) 97,87 %
20.10.2020 16:30 12,8 C 11,1 C 10,0 C 91 % 1010,3 hPa 0,0 l/m 0 min 0 min 33 W/m 16,1 km/h (3 Bft) 97,56 %
20.10.2020 16:32 12,8 C 11,1 C 9,5 C 91 % 1010,2 hPa 0,0 l/m 0 min 2 min 32 W/m 16,1 km/h (3 Bft) 95,92 %
20.10.2020 16:34 12,8 C 11,1 C 10,0 C 91 % 1010,2 hPa 0,0 l/m 0 min 2 min 28 W/m 12,9 km/h (3 Bft) 95,83 %
20.10.2020 16:36 12,8 C 11,1 C 10,0 C 91 % 1010,3 hPa 0,0 l/m 0 min 2 min 25 W/m 16,1 km/h (3 Bft) 95,83 %
20.10.2020 16:38 12,8 C 11,1 C 10,0 C 92 % 1010,2 hPa 0,0 l/m 0 min 2 min 25 W/m 12,9 km/h (3 Bft) 93,62 %
20.10.2020 16:40 12,8 C 11,1 C 9,5 C 92 % 1010,2 hPa 0,0 l/m 0 min 2 min 26 W/m 16,1 km/h (3 Bft) 93,75 %
20.10.2020 16:42 12,7 C 11,1 C 10,0 C 92 % 1010,2 hPa 0,2 l/m 0 min 2 min 29 W/m 19,3 km/h (3 Bft) 95,74 %
20.10.2020 16:44 12,7 C 11,1 C 9,5 C 92 % 1010,2 hPa 0,0 l/m 0 min 2 min 32 W/m 16,1 km/h (3 Bft) 95,74 %
20.10.2020 16:46 12,6 C 11,1 C 10,0 C 92 % 1010,2 hPa 0,0 l/m 0 min 2 min 32 W/m 12,9 km/h (3 Bft) 95,74 %
20.10.2020 16:48 12,6 C 11,1 C 10,0 C 92 % 1010,2 hPa 0,0 l/m 0 min 2 min 33 W/m 16,1 km/h (3 Bft) 95,65 %
20.10.2020 16:50 12,6 C 11,1 C 10,0 C 93 % 1010,1 hPa 0,0 l/m 0 min 2 min 33 W/m 16,1 km/h (3 Bft) 95,24 %
20.10.2020 16:52 12,6 C 11,1 C 10,0 C 93 % 1010,1 hPa 0,0 l/m 0 min 2 min 31 W/m 19,3 km/h (3 Bft) 95,74 %
20.10.2020 16:54 12,6 C 11,1 C 10,0 C 93 % 1010,1 hPa 0,0 l/m 0 min 2 min 30 W/m 12,9 km/h (3 Bft) 97,92 %
20.10.2020 16:56 12,6 C 11,1 C 10,0 C 93 % 1010,0 hPa 0,0 l/m 0 min 2 min 32 W/m 12,9 km/h (3 Bft) 93,75 %
20.10.2020 16:58 12,6 C 11,1 C 10,0 C 93 % 1010,0 hPa 0,0 l/m 0 min 2 min 32 W/m 19,3 km/h (3 Bft) 98,04 %
20.10.2020 17:00 12,6 C 11,1 C 10,0 C 93 % 1009,9 hPa 0,0 l/m 0 min 2 min 32 W/m 6,4 km/h (2 Bft) 97,83 %
20.10.2020 17:02 12,6 C 11,1 C 10,0 C 93 % 1009,9 hPa 0,0 l/m 0 min 2 min 32 W/m 16,1 km/h (3 Bft) 97,62 %
20.10.2020 17:04 12,6 C 11,1 C 10,0 C 93 % 1009,9 hPa 0,0 l/m 0 min 2 min 32 W/m 16,1 km/h (3 Bft) 97,87 %
20.10.2020 17:06 12,5 C 11,1 C 10,0 C 94 % 1009,8 hPa 0,0 l/m 0 min 2 min 31 W/m 16,1 km/h (3 Bft) 95,83 %
20.10.2020 17:08 12,5 C 11,1 C 10,0 C 94 % 1009,9 hPa 0,2 l/m 0 min 2 min 29 W/m 16,1 km/h (3 Bft) 95,83 %
20.10.2020 17:10 12,5 C 11,1 C 10,0 C 94 % 1009,8 hPa 0,0 l/m 0 min 2 min 27 W/m 12,9 km/h (3 Bft) 93,75 %
20.10.2020 17:12 12,5 C 11,1 C 10,0 C 94 % 1009,9 hPa 0,0 l/m 0 min 2 min 24 W/m 16,1 km/h (3 Bft) 97,87 %
20.10.2020 17:14 12,5 C 11,1 C 10,0 C 94 % 1009,8 hPa 0,0 l/m 0 min 2 min 20 W/m 22,5 km/h (4 Bft) 95,83 %
20.10.2020 17:16 12,5 C 11,1 C 10,0 C 94 % 1009,8 hPa 0,0 l/m 0 min 2 min 19 W/m 19,3 km/h (3 Bft) 95,83 %
20.10.2020 17:18 12,5 C 11,1 C 10,0 C 94 % 1009,7 hPa 0,0 l/m 0 min 2 min 19 W/m 16,1 km/h (3 Bft) 93,62 %
20.10.2020 17:20 12,5 C 11,1 C 10,0 C 94 % 1009,7 hPa 0,0 l/m 0 min 2 min 21 W/m 12,9 km/h (3 Bft) 97,87 %
20.10.2020 17:22 12,5 C 11,1 C 10,0 C 94 % 1009,6 hPa 0,0 l/m 0 min 2 min 22 W/m 16,1 km/h (3 Bft) 95,12 %
20.10.2020 17:24 12,5 C 11,1 C 10,0 C 95 % 1009,5 hPa 0,0 l/m 0 min 0 min 25 W/m 6,4 km/h (2 Bft) 95,83 %
20.10.2020 17:26 12,5 C 11,1 C 10,0 C 95 % 1009,5 hPa 0,0 l/m 0 min 2 min 29 W/m 16,1 km/h (3 Bft) 95,74 %
20.10.2020 17:28 12,5 C 11,1 C 10,0 C 95 % 1009,5 hPa 0,0 l/m 0 min 2 min 32 W/m 12,9 km/h (3 Bft) 95,83 %
20.10.2020 17:30 12,5 C 11,1 C 10,0 C 95 % 1009,5 hPa 0,0 l/m 0 min 0 min 31 W/m 16,1 km/h (3 Bft) 93,75 %
20.10.2020 17:32 12,5 C 11,1 C 10,0 C 95 % 1009,6 hPa 0,0 l/m 0 min 0 min 27 W/m 16,1 km/h (3 Bft) 95,92 %
20.10.2020 17:34 12,5 C 11,1 C 10,0 C 95 % 1009,5 hPa 0,0 l/m 0 min 0 min 26 W/m 3,2 km/h (1 Bft) 95,65 %
20.10.2020 17:36 12,4 C 11,1 C 10,0 C 95 % 1009,5 hPa 0,0 l/m 0 min 0 min 26 W/m 16,1 km/h (3 Bft) 95,74 %
20.10.2020 17:38 12,4 C 11,1 C 10,0 C 95 % 1009,4 hPa 0,0 l/m 0 min 0 min 24 W/m 16,1 km/h (3 Bft) 95,12 %
20.10.2020 17:40 12,4 C 11,1 C 10,0 C 95 % 1009,4 hPa 0,0 l/m 0 min 0 min 21 W/m 3,2 km/h (1 Bft) 96,43 %
20.10.2020 17:42 12,4 C 11,1 C 10,0 C 95 % 1009,5 hPa 0,0 l/m 0 min 0 min 19 W/m 12,9 km/h (3 Bft) 95,74 %
20.10.2020 17:44 12,4 C 11,1 C 10,0 C 95 % 1009,5 hPa 0,0 l/m 0 min 0 min 17 W/m 0,0 km/h (0 Bft) 97,56 %
20.10.2020 17:46 12,4 C 11,1 C 10,0 C 95 % 1009,5 hPa 0,0 l/m 0 min 2 min 14 W/m 12,9 km/h (3 Bft) 97,92 %
20.10.2020 17:48 12,4 C 11,1 C 10,0 C 95 % 1009,4 hPa 0,0 l/m 0 min 2 min 14 W/m 12,9 km/h (3 Bft) 97,87 %
20.10.2020 17:50 12,4 C 11,1 C 10,0 C 95 % 1009,4 hPa 0,0 l/m 0 min 0 min 14 W/m 16,1 km/h (3 Bft) 93,75 %
20.10.2020 17:52 12,4 C 11,1 C 10,0 C 96 % 1009,5 hPa 0,0 l/m 0 min 0 min 14 W/m 12,9 km/h (3 Bft) 97,96 %
20.10.2020 17:54 12,4 C 11,1 C 10,0 C 96 % 1009,5 hPa 0,0 l/m 0 min 0 min 12 W/m 16,1 km/h (3 Bft) 97,87 %
20.10.2020 17:56 12,4 C 11,1 C 10,0 C 96 % 1009,5 hPa 0,0 l/m 0 min 0 min 10 W/m 0,0 km/h (0 Bft) 97,92 %
20.10.2020 17:58 12,4 C 11,1 C 10,0 C 96 % 1009,5 hPa 0,0 l/m 0 min 0 min 10 W/m 12,9 km/h (3 Bft) 91,49 %
20.10.2020 18:00 12,4 C 11,1 C 10,0 C 96 % 1009,5 hPa 0,0 l/m 0 min 0 min 9 W/m 3,2 km/h (1 Bft) 95,74 %
20.10.2020 18:02 12,4 C 11,1 C 10,0 C 96 % 1009,6 hPa 0,0 l/m 0 min 0 min 8 W/m 16,1 km/h (3 Bft) 97,62 %
20.10.2020 18:04 12,4 C 11,1 C 10,0 C 96 % 1009,5 hPa 0,0 l/m 0 min 0 min 7 W/m 12,9 km/h (3 Bft) 98,08 %
20.10.2020 18:08 12,4 C 11,1 C 10,0 C 96 % 1009,6 hPa 0,0 l/m 0 min 0 min 5 W/m 16,1 km/h (3 Bft) 97,87 %
20.10.2020 18:10 12,3 C 11,1 C 10,0 C 96 % 1009,6 hPa 0,0 l/m 0 min 0 min 0 W/m 19,3 km/h (3 Bft) 97,87 %
20.10.2020 18:12 12,3 C 11,1 C 10,0 C 96 % 1009,7 hPa 0,0 l/m 0 min 0 min 0 W/m 16,1 km/h (3 Bft) 100,00 %
20.10.2020 18:14 12,4 C 11,1 C 10,0 C 96 % 1009,6 hPa 0,0 l/m 0 min 0 min 0 W/m 12,9 km/h (3 Bft) 100,00 %
20.10.2020 18:16 12,3 C 11,1 C 10,0 C 96 % 1009,6 hPa 0,0 l/m 0 min 0 min 0 W/m 3,2 km/h (1 Bft) 100,00 %
20.10.2020 18:18 12,3 C 11,1 C 10,0 C 96 % 1009,7 hPa 0,0 l/m 0 min 2 min 0 W/m 0,0 km/h (0 Bft) 97,56 %
20.10.2020 18:20 12,3 C 11,1 C 10,0 C 96 % 1009,7 hPa 0,0 l/m 0 min 2 min 0 W/m 19,3 km/h (3 Bft) 100,00 %
20.10.2020 18:22 12,3 C 11,1 C 10,0 C 96 % 1009,6 hPa 0,0 l/m 0 min 2 min 0 W/m 0,0 km/h (0 Bft) 100,00 %
20.10.2020 18:24 12,3 C 11,1 C 10,0 C 96 % 1009,5 hPa 0,0 l/m 0 min 2 min 0 W/m 0,0 km/h (0 Bft) 97,92 %
20.10.2020 18:26 12,3 C 11,1 C 10,0 C 96 % 1009,5 hPa 0,0 l/m 0 min 2 min 0 W/m 0,0 km/h (0 Bft) 100,00 %
20.10.2020 18:28 12,3 C 11,1 C 10,0 C 96 % 1009,5 hPa 0,0 l/m 0 min 2 min 0 W/m 16,1 km/h (3 Bft) 89,58 %
20.10.2020 18:30 12,3 C 11,1 C 10,0 C 96 % 1009,6 hPa 0,0 l/m 0 min 2 min 0 W/m 3,2 km/h (1 Bft) 60,00 %
20.10.2020 18:32 12,3 C 11,1 C 10,0 C 96 % 1009,6 hPa 0,0 l/m 0 min 2 min 0 W/m 6,4 km/h (2 Bft) 100,00 %
20.10.2020 18:34 12,3 C 11,1 C 10,0 C 96 % 1009,6 hPa 0,0 l/m 0 min 2 min 0 W/m 16,1 km/h (3 Bft) 100,00 %
20.10.2020 18:36 12,3 C 11,1 C 10,0 C 96 % 1009,7 hPa 0,0 l/m 0 min 0 min 0 W/m 6,4 km/h (2 Bft) 100,00 %
20.10.2020 18:38 12,3 C 11,1 C 10,0 C 96 % 1009,7 hPa 0,0 l/m 0 min 0 min 0 W/m 12,9 km/h (3 Bft) 100,00 %
20.10.2020 18:40 12,3 C 11,1 C 10,0 C 96 % 1009,7 hPa 0,0 l/m 0 min 0 min 0 W/m 12,9 km/h (3 Bft) 97,92 %
20.10.2020 18:42 12,3 C 11,1 C 10,0 C 97 % 1009,7 hPa 0,0 l/m 0 min 2 min 0 W/m 12,9 km/h (3 Bft) 100,00 %
20.10.2020 18:44 12,3 C 11,1 C 10,0 C 97 % 1009,6 hPa 0,0 l/m 0 min 0 min 0 W/m 19,3 km/h (3 Bft) 97,87 %
20.10.2020 18:46 12,3 C 11,1 C 10,0 C 97 % 1009,5 hPa 0,0 l/m 0 min 0 min 0 W/m 19,3 km/h (3 Bft) 100,00 %
20.10.2020 18:48 12,3 C 11,1 C 10,0 C 97 % 1009,5 hPa 0,0 l/m 0 min 0 min 0 W/m 16,1 km/h (3 Bft) 100,00 %
20.10.2020 18:50 12,3 C 11,1 C 10,0 C 97 % 1009,5 hPa 0,0 l/m 0 min 0 min 0 W/m 12,9 km/h (3 Bft) 100,00 %
20.10.2020 18:52 12,3 C 11,1 C 10,0 C 97 % 1009,4 hPa 0,0 l/m 0 min 0 min 0 W/m 12,9 km/h (3 Bft) 98,33 %
20.10.2020 18:54 12,3 C 11,1 C 10,0 C 97 % 1009,4 hPa 0,0 l/m 0 min 0 min 0 W/m 16,1 km/h (3 Bft) 97,87 %
20.10.2020 18:56 12,3 C 11,1 C 10,0 C 97 % 1009,4 hPa 0,0 l/m 0 min 0 min 0 W/m 16,1 km/h (3 Bft) 95,74 %
20.10.2020 18:58 12,3 C 11,1 C 10,0 C 97 % 1009,4 hPa 0,0 l/m 0 min 0 min 0 W/m 12,9 km/h (3 Bft) 100,00 %
20.10.2020 19:00 12,3 C 11,1 C 10,0 C 97 % 1009,4 hPa 0,0 l/m 0 min 0 min 0 W/m 12,9 km/h (3 Bft) 96,61 %
20.10.2020 19:02 12,3 C 11,1 C 10,0 C 97 % 1009,5 hPa 0,0 l/m 0 min 0 min 0 W/m 12,9 km/h (3 Bft) 94,74 %
20.10.2020 19:04 12,3 C 11,1 C 10,0 C 97 % 1009,5 hPa 0,0 l/m 0 min 0 min 0 W/m 12,9 km/h (3 Bft) 97,96 %
20.10.2020 19:06 12,3 C 11,1 C 10,0 C 97 % 1009,5 hPa 0,0 l/m 0 min 2 min 0 W/m 6,4 km/h (2 Bft) 97,87 %
20.10.2020 19:08 12,3 C 11,1 C 10,0 C 97 % 1009,6 hPa 0,0 l/m 0 min 2 min 0 W/m 12,9 km/h (3 Bft) 97,87 %
20.10.2020 19:10 12,3 C 11,1 C 10,0 C 97 % 1009,6 hPa 0,0 l/m 0 min 2 min 0 W/m 6,4 km/h (2 Bft) 97,83 %
20.10.2020 19:12 12,3 C 11,1 C 10,0 C 97 % 1009,7 hPa 0,0 l/m 0 min 2 min 0 W/m 6,4 km/h (2 Bft) 97,87 %
20.10.2020 19:14 12,3 C 11,1 C 10,0 C 97 % 1009,7 hPa 0,0 l/m 0 min 2 min 0 W/m 3,2 km/h (1 Bft) 97,56 %
20.10.2020 19:16 12,3 C 11,1 C 10,0 C 97 % 1009,7 hPa 0,2 l/m 0 min 2 min 0 W/m 16,1 km/h (3 Bft) 95,83 %
20.10.2020 19:18 12,3 C 11,1 C 10,0 C 97 % 1009,8 hPa 0,0 l/m 0 min 2 min 0 W/m 3,2 km/h (1 Bft) 97,92 %
20.10.2020 19:20 12,3 C 11,1 C 10,0 C 97 % 1009,8 hPa 0,0 l/m 0 min 2 min 0 W/m 6,4 km/h (2 Bft) 97,92 %
20.10.2020 19:22 12,3 C 11,1 C 10,0 C 97 % 1009,8 hPa 0,0 l/m 0 min 2 min 0 W/m 6,4 km/h (2 Bft) 97,87 %
20.10.2020 19:24 12,3 C 11,1 C 10,0 C 97 % 1009,8 hPa 0,0 l/m 0 min 0 min 0 W/m 19,3 km/h (3 Bft) 95,83 %
20.10.2020 19:26 12,3 C 11,1 C 10,0 C 97 % 1009,8 hPa 0,0 l/m 0 min 0 min 0 W/m 16,1 km/h (3 Bft) 97,92 %
20.10.2020 19:28 12,3 C 11,1 C 10,0 C 97 % 1009,8 hPa 0,0 l/m 0 min 2 min 0 W/m 12,9 km/h (3 Bft) 97,87 %
20.10.2020 19:30 12,4 C 11,1 C 10,0 C 97 % 1009,8 hPa 0,2 l/m 0 min 2 min 0 W/m 6,4 km/h (2 Bft) 97,87 %
20.10.2020 19:32 12,3 C 11,1 C 10,0 C 97 % 1009,7 hPa 0,0 l/m 0 min 2 min 0 W/m 16,1 km/h (3 Bft) 97,62 %
20.10.2020 19:34 12,4 C 11,1 C 10,0 C 97 % 1009,7 hPa 0,0 l/m 0 min 2 min 0 W/m 16,1 km/h (3 Bft) 95,74 %
20.10.2020 19:36 12,4 C 11,1 C 10,0 C 97 % 1009,7 hPa 0,0 l/m 0 min 2 min 0 W/m 6,4 km/h (2 Bft) 97,92 %
20.10.2020 19:38 12,4 C 11,1 C 10,0 C 97 % 1009,7 hPa 0,0 l/m 0 min 2 min 0 W/m 12,9 km/h (3 Bft) 97,92 %
20.10.2020 19:40 12,4 C 11,1 C 10,0 C 97 % 1009,7 hPa 0,0 l/m 0 min 2 min 0 W/m 16,1 km/h (3 Bft) 97,92 %
20.10.2020 19:42 12,4 C 11,1 C 10,0 C 97 % 1009,7 hPa 0,0 l/m 0 min 0 min 0 W/m 16,1 km/h (3 Bft) 100,00 %
20.10.2020 19:44 12,4 C 11,1 C 10,0 C 97 % 1009,7 hPa 0,0 l/m 0 min 2 min 0 W/m 19,3 km/h (3 Bft) 100,00 %
20.10.2020 19:46 12,4 C 11,1 C 10,0 C 97 % 1009,8 hPa 0,0 l/m 0 min 2 min 0 W/m 22,5 km/h (4 Bft) 100,00 %
20.10.2020 19:48 12,4 C 11,1 C 10,0 C 97 % 1009,8 hPa 0,0 l/m 0 min 2 min 0 W/m 19,3 km/h (3 Bft) 97,87 %
20.10.2020 19:50 12,4 C 11,1 C 10,0 C 97 % 1009,7 hPa 0,0 l/m 0 min 2 min 0 W/m 16,1 km/h (3 Bft) 100,00 %
20.10.2020 19:52 12,4 C 11,1 C 10,0 C 97 % 1009,7 hPa 0,0 l/m 0 min 2 min 0 W/m 12,9 km/h (3 Bft) 97,92 %
20.10.2020 19:54 12,4 C 11,1 C 10,0 C 97 % 1009,8 hPa 0,0 l/m 0 min 2 min 0 W/m 16,1 km/h (3 Bft) 95,83 %
20.10.2020 19:56 12,4 C 11,1 C 10,0 C 97 % 1009,7 hPa 0,2 l/m 0 min 2 min 0 W/m 19,3 km/h (3 Bft) 100,00 %
20.10.2020 19:58 12,4 C 11,1 C 10,0 C 98 % 1009,7 hPa 0,0 l/m 0 min 0 min 0 W/m 19,3 km/h (3 Bft) 100,00 %
20.10.2020 20:00 12,4 C 11,1 C 10,0 C 98 % 1009,7 hPa 0,0 l/m 0 min 2 min 0 W/m 16,1 km/h (3 Bft) 100,00 %
20.10.2020 20:02 12,4 C 11,1 C 10,0 C 98 % 1009,7 hPa 0,0 l/m 0 min 0 min 0 W/m 16,1 km/h (3 Bft) 100,00 %
20.10.2020 20:04 12,4 C 11,1 C 10,0 C 98 % 1009,7 hPa 0,0 l/m 0 min 0 min 0 W/m 16,1 km/h (3 Bft) 97,56 %
20.10.2020 20:06 12,4 C 11,1 C 10,0 C 98 % 1009,7 hPa 0,0 l/m 0 min 0 min 0 W/m 12,9 km/h (3 Bft) 100,00 %
20.10.2020 20:08 12,4 C 11,1 C 10,0 C 98 % 1009,8 hPa 0,0 l/m 0 min 0 min 0 W/m 19,3 km/h (3 Bft) 100,00 %
20.10.2020 20:10 12,4 C 11,1 C 10,0 C 98 % 1009,9 hPa 0,0 l/m 0 min 2 min 0 W/m 12,9 km/h (3 Bft) 100,00 %
20.10.2020 20:12 12,4 C 11,1 C 10,0 C 98 % 1009,8 hPa 0,0 l/m 0 min 2 min 0 W/m 19,3 km/h (3 Bft) 97,92 %
20.10.2020 20:14 12,4 C 11,1 C 10,0 C 98 % 1009,8 hPa 0,0 l/m 0 min 0 min 0 W/m 19,3 km/h (3 Bft) 97,92 %
20.10.2020 20:16 12,3 C 11,1 C 10,0 C 98 % 1009,7 hPa 0,0 l/m 0 min 2 min 0 W/m 12,9 km/h (3 Bft) 97,92 %
20.10.2020 20:18 12,4 C 11,1 C 10,0 C 98 % 1009,7 hPa 0,0 l/m 0 min 0 min 0 W/m 16,1 km/h (3 Bft) 97,83 %
20.10.2020 20:20 12,3 C 11,1 C 10,0 C 98 % 1009,6 hPa 0,0 l/m 0 min 0 min 0 W/m 12,9 km/h (3 Bft) 97,87 %
20.10.2020 20:22 12,3 C 11,1 C 10,0 C 98 % 1009,6 hPa 0,0 l/m 0 min 2 min 0 W/m 12,9 km/h (3 Bft) 97,56 %
20.10.2020 20:24 12,3 C 11,1 C 10,0 C 98 % 1009,7 hPa 0,0 l/m 0 min 2 min 0 W/m 12,9 km/h (3 Bft) 95,83 %
20.10.2020 20:26 12,3 C 11,1 C 10,0 C 98 % 1009,7 hPa 0,0 l/m 0 min 2 min 0 W/m 22,5 km/h (4 Bft) 97,92 %
20.10.2020 20:28 12,3 C 11,1 C 10,0 C 98 % 1009,8 hPa 0,0 l/m 0 min 0 min 0 W/m 16,1 km/h (3 Bft) 95,83 %
20.10.2020 20:30 12,3 C 11,1 C 10,0 C 98 % 1009,8 hPa 0,0 l/m 0 min 0 min 0 W/m 12,9 km/h (3 Bft) 95,83 %
20.10.2020 20:32 12,3 C 11,1 C 10,0 C 98 % 1009,8 hPa 0,0 l/m 0 min 0 min 0 W/m 16,1 km/h (3 Bft) 97,83 %
20.10.2020 20:34 12,3 C 11,1 C 10,0 C 98 % 1009,7 hPa 0,0 l/m 0 min 0 min 0 W/m 19,3 km/h (3 Bft) 95,74 %
20.10.2020 20:36 12,3 C 11,1 C 10,0 C 98 % 1009,8 hPa 0,0 l/m 0 min 0 min 0 W/m 12,9 km/h (3 Bft) 95,74 %
20.10.2020 20:38 12,3 C 11,1 C 10,0 C 98 % 1009,7 hPa 0,0 l/m 0 min 0 min 0 W/m 12,9 km/h (3 Bft) 94,55 %
20.10.2020 20:40 12,3 C 11,1 C 10,0 C 98 % 1009,7 hPa 0,0 l/m 0 min 0 min 0 W/m 12,9 km/h (3 Bft) 95,92 %
20.10.2020 20:42 12,3 C 11,1 C 10,0 C 98 % 1009,7 hPa 0,0 l/m 0 min 0 min 0 W/m 16,1 km/h (3 Bft) 95,74 %
20.10.2020 20:44 12,3 C 11,1 C 10,0 C 98 % 1009,5 hPa 0,0 l/m 0 min 0 min 0 W/m 12,9 km/h (3 Bft) 91,67 %
20.10.2020 20:46 12,3 C 11,1 C 10,0 C 98 % 1009,6 hPa 0,0 l/m 0 min 2 min 0 W/m 16,1 km/h (3 Bft) 95,74 %
20.10.2020 20:48 12,4 C 11,1 C 10,0 C 98 % 1009,5 hPa 0,0 l/m 0 min 0 min 0 W/m 22,5 km/h (4 Bft) 95,74 %
20.10.2020 20:50 12,3 C 11,1 C 10,0 C 98 % 1009,5 hPa 0,0 l/m 0 min 0 min 0 W/m 12,9 km/h (3 Bft) 95,74 %
20.10.2020 20:52 12,3 C 11,1 C 10,0 C 98 % 1009,5 hPa 0,0 l/m 0 min 0 min 0 W/m 25,7 km/h (4 Bft) 95,74 %
20.10.2020 20:54 12,3 C 11,1 C 10,0 C 98 % 1009,5 hPa 0,0 l/m 0 min 0 min 0 W/m 19,3 km/h (3 Bft) 95,74 %
20.10.2020 20:56 12,3 C 11,1 C 10,0 C 98 % 1009,5 hPa 0,0 l/m 0 min 0 min 0 W/m 16,1 km/h (3 Bft) 94,44 %
20.10.2020 20:58 12,3 C 11,1 C 10,0 C 98 % 1009,6 hPa 0,0 l/m 0 min 0 min 0 W/m 19,3 km/h (3 Bft) 97,87 %
20.10.2020 21:00 12,3 C 11,1 C 10,0 C 98 % 1009,7 hPa 0,0 l/m 0 min 0 min 0 W/m 16,1 km/h (3 Bft) 98,00 %
20.10.2020 21:02 12,3 C 11,1 C 10,0 C 98 % 1009,7 hPa 0,0 l/m 0 min 0 min 0 W/m 16,1 km/h (3 Bft) 39,39 %
20.10.2020 21:04 12,3 C 11,1 C 10,0 C 98 % 1009,7 hPa 0,0 l/m 0 min 0 min 0 W/m 9,7 km/h (2 Bft) 97,62 %
20.10.2020 21:06 12,3 C 11,1 C 10,0 C 98 % 1009,7 hPa 0,0 l/m 0 min 0 min 0 W/m 22,5 km/h (4 Bft) 95,65 %
20.10.2020 21:08 12,3 C 11,1 C 10,0 C 98 % 1009,7 hPa 0,0 l/m 0 min 0 min 0 W/m 12,9 km/h (3 Bft) 95,74 %
20.10.2020 21:10 12,3 C 11,1 C 10,0 C 98 % 1009,7 hPa 0,0 l/m 0 min 0 min 0 W/m 16,1 km/h (3 Bft) 98,18 %
20.10.2020 21:12 12,3 C 11,1 C 10,0 C 98 % 1009,7 hPa 0,0 l/m 0 min 2 min 0 W/m 6,4 km/h (2 Bft) 97,87 %
20.10.2020 21:14 12,3 C 11,1 C 10,0 C 98 % 1009,7 hPa 0,0 l/m 0 min 0 min 0 W/m 16,1 km/h (3 Bft) 97,83 %
20.10.2020 21:16 12,3 C 11,1 C 10,0 C 98 % 1009,7 hPa 0,0 l/m 0 min 0 min 0 W/m 12,9 km/h (3 Bft) 97,87 %
20.10.2020 21:18 12,3 C 11,1 C 10,0 C 98 % 1009,6 hPa 0,0 l/m 0 min 0 min 0 W/m 12,9 km/h (3 Bft) 97,87 %
20.10.2020 21:20 12,3 C 11,1 C 10,0 C 98 % 1009,6 hPa 0,0 l/m 0 min 0 min 0 W/m 12,9 km/h (3 Bft) 97,87 %
20.10.2020 21:22 12,3 C 11,1 C 10,0 C 98 % 1009,6 hPa 0,0 l/m 0 min 0 min 0 W/m 6,4 km/h (2 Bft) 97,87 %
20.10.2020 21:24 12,3 C 11,1 C 10,0 C 98 % 1009,5 hPa 0,0 l/m 0 min 0 min 0 W/m 12,9 km/h (3 Bft) 98,00 %
20.10.2020 21:26 12,3 C 11,1 C 10,0 C 98 % 1009,5 hPa 0,0 l/m 0 min 0 min 0 W/m 6,4 km/h (2 Bft) 97,83 %
20.10.2020 21:28 12,3 C 11,1 C 10,0 C 98 % 1009,5 hPa 0,0 l/m 0 min 0 min 0 W/m 16,1 km/h (3 Bft) 97,30 %
20.10.2020 21:30 12,3 C 11,1 C 10,0 C 98 % 1009,4 hPa 0,0 l/m 0 min 0 min 0 W/m 12,9 km/h (3 Bft) 97,83 %
20.10.2020 21:32 12,3 C 11,1 C 10,0 C 98 % 1009,3 hPa 0,0 l/m 0 min 0 min 0 W/m 16,1 km/h (3 Bft) 98,00 %
20.10.2020 21:34 12,2 C 11,1 C 10,0 C 98 % 1009,3 hPa 0,0 l/m 0 min 0 min 0 W/m 9,7 km/h (2 Bft) 95,74 %
20.10.2020 21:36 12,3 C 11,1 C 10,0 C 98 % 1009,3 hPa 0,0 l/m 0 min 0 min 0 W/m 6,4 km/h (2 Bft) 98,18 %
20.10.2020 21:38 12,2 C 11,1 C 10,0 C 98 % 1009,3 hPa 0,0 l/m 0 min 0 min 0 W/m 12,9 km/h (3 Bft) 97,37 %
20.10.2020 21:40 12,3 C 11,1 C 10,0 C 98 % 1009,3 hPa 0,0 l/m 0 min 0 min 0 W/m 6,4 km/h (2 Bft) 97,83 %
20.10.2020 21:42 12,2 C 11,1 C 10,0 C 98 % 1009,2 hPa 0,0 l/m 0 min 0 min 0 W/m 12,9 km/h (3 Bft) 95,83 %
20.10.2020 21:44 12,2 C 11,1 C 10,0 C 98 % 1009,2 hPa 0,0 l/m 0 min 0 min 0 W/m 16,1 km/h (3 Bft) 97,87 %
20.10.2020 21:46 12,2 C 11,1 C 10,0 C 98 % 1009,2 hPa 0,0 l/m 0 min 0 min 0 W/m 19,3 km/h (3 Bft) 98,11 %
20.10.2020 21:48 12,3 C 11,1 C 10,0 C 98 % 1009,2 hPa 0,0 l/m 0 min 0 min 0 W/m 16,1 km/h (3 Bft) 97,56 %
20.10.2020 21:50 12,3 C 11,1 C 10,0 C 98 % 1009,2 hPa 0,0 l/m 0 min 0 min 0 W/m 16,1 km/h (3 Bft) 95,45 %
20.10.2020 21:52 12,3 C 11,1 C 10,0 C 98 % 1009,2 hPa 0,0 l/m 0 min 2 min 0 W/m 12,9 km/h (3 Bft) 95,92 %
20.10.2020 21:54 12,3 C 11,1 C 10,0 C 98 % 1009,2 hPa 0,0 l/m 0 min 0 min 0 W/m 12,9 km/h (3 Bft) 97,87 %
20.10.2020 21:56 12,3 C 11,1 C 10,0 C 98 % 1009,2 hPa 0,0 l/m 0 min 0 min 0 W/m 6,4 km/h (2 Bft) 97,87 %
20.10.2020 21:58 12,3 C 11,1 C 10,0 C 98 % 1009,2 hPa 0,0 l/m 0 min 0 min 0 W/m 12,9 km/h (3 Bft) 97,87 %
20.10.2020 22:00 12,3 C 11,1 C 10,0 C 98 % 1009,2 hPa 0,0 l/m 0 min 0 min 0 W/m 12,9 km/h (3 Bft) 97,87 %
20.10.2020 22:02 12,3 C 11,1 C 10,0 C 98 % 1009,2 hPa 0,0 l/m 0 min 0 min 0 W/m 19,3 km/h (3 Bft) 93,62 %
20.10.2020 22:04 12,3 C 11,1 C 10,0 C 98 % 1009,2 hPa 0,0 l/m 0 min 0 min 0 W/m 12,9 km/h (3 Bft) 97,67 %
20.10.2020 22:06 12,3 C 11,1 C 10,0 C 98 % 1009,1 hPa 0,0 l/m 0 min 0 min 0 W/m 6,4 km/h (2 Bft) 97,87 %
20.10.2020 22:08 12,3 C 11,1 C 10,0 C 98 % 1009,2 hPa 0,0 l/m 0 min 0 min 0 W/m 12,9 km/h (3 Bft) 95,74 %
20.10.2020 22:10 12,3 C 11,1 C 10,0 C 98 % 1009,1 hPa 0,0 l/m 0 min 0 min 0 W/m 22,5 km/h (4 Bft) 98,00 %
20.10.2020 22:12 12,3 C 11,1 C 10,0 C 98 % 1009,0 hPa 0,0 l/m 0 min 0 min 0 W/m 12,9 km/h (3 Bft) 97,87 %
20.10.2020 22:14 12,3 C 11,1 C 10,0 C 98 % 1009,1 hPa 0,0 l/m 0 min 0 min 0 W/m 6,4 km/h (2 Bft) 97,87 %
20.10.2020 22:16 12,3 C 11,1 C 10,0 C 98 % 1009,0 hPa 0,0 l/m 0 min 0 min 0 W/m 6,4 km/h (2 Bft) 97,83 %
20.10.2020 22:18 12,3 C 11,1 C 10,0 C 98 % 1009,0 hPa 0,0 l/m 0 min 0 min 0 W/m 16,1 km/h (3 Bft) 97,87 %
20.10.2020 22:20 12,3 C 11,1 C 10,0 C 98 % 1008,9 hPa 0,0 l/m 0 min 0 min 0 W/m 6,4 km/h (2 Bft) 97,87 %
20.10.2020 22:22 12,3 C 11,1 C 10,0 C 98 % 1008,9 hPa 0,0 l/m 0 min 0 min 0 W/m 22,5 km/h (4 Bft) 97,87 %
20.10.2020 22:24 12,3 C 11,1 C 10,0 C 98 % 1008,8 hPa 0,0 l/m 0 min 0 min 0 W/m 12,9 km/h (3 Bft) 91,49 %
20.10.2020 22:26 12,3 C 11,1 C 10,0 C 98 % 1008,8 hPa 0,0 l/m 0 min 0 min 0 W/m 19,3 km/h (3 Bft) 97,73 %
20.10.2020 22:28 12,3 C 11,1 C 10,0 C 98 % 1008,9 hPa 0,0 l/m 0 min 0 min 0 W/m 19,3 km/h (3 Bft) 97,83 %
20.10.2020 22:30 12,3 C 11,1 C 10,0 C 98 % 1008,9 hPa 0,0 l/m 0 min 0 min 0 W/m 6,4 km/h (2 Bft) 100,00 %
20.10.2020 22:32 12,3 C 11,1 C 10,0 C 98 % 1008,9 hPa 0,0 l/m 0 min 0 min 0 W/m 12,9 km/h (3 Bft) 100,00 %
20.10.2020 22:34 12,3 C 11,1 C 10,0 C 98 % 1008,9 hPa 0,0 l/m 0 min 0 min 0 W/m 12,9 km/h (3 Bft) 98,00 %
20.10.2020 22:36 12,2 C 11,1 C 10,0 C 98 % 1008,9 hPa 0,0 l/m 0 min 0 min 0 W/m 16,1 km/h (3 Bft) 100,00 %
20.10.2020 22:38 12,2 C 11,1 C 10,0 C 98 % 1008,9 hPa 0,0 l/m 0 min 0 min 0 W/m 16,1 km/h (3 Bft) 97,87 %
20.10.2020 22:40 12,2 C 11,1 C 10,0 C 98 % 1008,9 hPa 0,0 l/m 0 min 0 min 0 W/m 19,3 km/h (3 Bft) 97,37 %
20.10.2020 22:42 12,2 C 11,1 C 10,0 C 98 % 1008,9 hPa 0,0 l/m 0 min 0 min 0 W/m 16,1 km/h (3 Bft) 97,87 %
20.10.2020 22:44 12,2 C 11,1 C 10,0 C 98 % 1008,9 hPa 0,0 l/m 0 min 0 min 0 W/m 16,1 km/h (3 Bft) 100,00 %
20.10.2020 22:46 12,2 C 11,1 C 10,0 C 98 % 1008,9 hPa 0,0 l/m 0 min 0 min 0 W/m 16,1 km/h (3 Bft) 100,00 %
20.10.2020 22:48 12,2 C 11,1 C 10,0 C 98 % 1009,0 hPa 0,0 l/m 0 min 0 min 0 W/m 9,7 km/h (2 Bft) 100,00 %
20.10.2020 22:50 12,1 C 11,1 C 10,0 C 98 % 1008,9 hPa 0,0 l/m 0 min 0 min 0 W/m 16,1 km/h (3 Bft) 98,15 %
20.10.2020 22:52 12,1 C 11,1 C 10,0 C 98 % 1008,9 hPa 0,0 l/m 0 min 2 min 0 W/m 16,1 km/h (3 Bft) 100,00 %
20.10.2020 22:54 12,1 C 11,1 C 10,0 C 98 % 1008,9 hPa 0,0 l/m 0 min 2 min 0 W/m 12,9 km/h (3 Bft) 100,00 %
20.10.2020 22:56 12,1 C 11,1 C 10,0 C 98 % 1008,9 hPa 0,0 l/m 0 min 0 min 0 W/m 12,9 km/h (3 Bft) 97,37 %
20.10.2020 22:58 12,1 C 11,1 C 10,0 C 98 % 1008,9 hPa 0,0 l/m 0 min 0 min 0 W/m 12,9 km/h (3 Bft) 97,87 %
20.10.2020 23:00 12,1 C 11,1 C 10,0 C 98 % 1008,9 hPa 0,0 l/m 0 min 0 min 0 W/m 16,1 km/h (3 Bft) 97,87 %
20.10.2020 23:02 12,1 C 11,1 C 10,0 C 97 % 1008,9 hPa 0,0 l/m 0 min 0 min 0 W/m 12,9 km/h (3 Bft) 97,83 %
20.10.2020 23:04 12,1 C 11,1 C 10,0 C 97 % 1008,9 hPa 0,0 l/m 0 min 0 min 0 W/m 16,1 km/h (3 Bft) 95,74 %
20.10.2020 23:06 12,1 C 11,1 C 10,0 C 97 % 1008,9 hPa 0,2 l/m 0 min 0 min 0 W/m 19,3 km/h (3 Bft) 97,87 %
20.10.2020 23:08 12,1 C 11,1 C 10,0 C 97 % 1008,9 hPa 0,0 l/m 0 min 0 min 0 W/m 12,9 km/h (3 Bft) 95,83 %
20.10.2020 23:10 12,1 C 11,1 C 10,0 C 97 % 1008,9 hPa 0,0 l/m 0 min 0 min 0 W/m 12,9 km/h (3 Bft) 93,62 %
20.10.2020 23:12 12,0 C 11,1 C 10,0 C 97 % 1008,9 hPa 0,0 l/m 0 min 2 min 0 W/m 19,3 km/h (3 Bft) 93,62 %
20.10.2020 23:14 12,0 C 11,1 C 10,0 C 97 % 1009,0 hPa 0,0 l/m 0 min 2 min 0 W/m 12,9 km/h (3 Bft) 97,83 %
20.10.2020 23:16 12,0 C 11,1 C 10,0 C 97 % 1008,9 hPa 0,0 l/m 0 min 2 min 0 W/m 12,9 km/h (3 Bft) 98,18 %
20.10.2020 23:18 12,0 C 11,1 C 10,0 C 97 % 1009,0 hPa 0,0 l/m 0 min 2 min 0 W/m 12,9 km/h (3 Bft) 97,37 %
20.10.2020 23:20 12,0 C 10,6 C 10,0 C 97 % 1008,9 hPa 0,0 l/m 0 min 2 min 0 W/m 16,1 km/h (3 Bft) 93,33 %
20.10.2020 23:22 12,0 C 10,6 C 10,0 C 97 % 1009,0 hPa 0,0 l/m 0 min 2 min 0 W/m 16,1 km/h (3 Bft) 97,87 %
20.10.2020 23:24 12,0 C 10,6 C 10,0 C 97 % 1009,0 hPa 0,0 l/m 0 min 2 min 0 W/m 16,1 km/h (3 Bft) 95,92 %
20.10.2020 23:26 12,0 C 10,6 C 10,0 C 97 % 1009,0 hPa 0,0 l/m 0 min 2 min 0 W/m 16,1 km/h (3 Bft) 95,74 %
20.10.2020 23:28 12,0 C 10,6 C 10,0 C 97 % 1009,0 hPa 0,0 l/m 0 min 2 min 0 W/m 16,1 km/h (3 Bft) 95,74 %
20.10.2020 23:30 12,0 C 10,6 C 10,0 C 97 % 1009,0 hPa 0,0 l/m 0 min 2 min 0 W/m 16,1 km/h (3 Bft) 97,87 %
20.10.2020 23:32 12,0 C 10,6 C 10,0 C 97 % 1009,0 hPa 0,0 l/m 0 min 2 min 0 W/m 12,9 km/h (3 Bft) 98,00 %
20.10.2020 23:34 12,0 C 10,6 C 10,0 C 97 % 1008,9 hPa 0,0 l/m 0 min 2 min 0 W/m 12,9 km/h (3 Bft) 97,96 %
20.10.2020 23:36 12,0 C 10,6 C 10,0 C 97 % 1008,9 hPa 0,0 l/m 0 min 2 min 0 W/m 16,1 km/h (3 Bft) 97,87 %
20.10.2020 23:38 12,0 C 10,6 C 10,0 C 97 % 1008,9 hPa 0,0 l/m 0 min 2 min 0 W/m 16,1 km/h (3 Bft) 97,14 %
20.10.2020 23:40 12,0 C 10,6 C 10,0 C 97 % 1008,9 hPa 0,2 l/m 0 min 2 min 0 W/m 12,9 km/h (3 Bft) 98,15 %
20.10.2020 23:42 12,0 C 10,6 C 10,0 C 97 % 1008,9 hPa 0,0 l/m 0 min 2 min 0 W/m 12,9 km/h (3 Bft) 95,74 %
20.10.2020 23:44 12,0 C 10,6 C 10,0 C 97 % 1009,0 hPa 0,0 l/m 0 min 2 min 0 W/m 12,9 km/h (3 Bft) 100,00 %
20.10.2020 23:46 12,0 C 10,6 C 10,0 C 97 % 1008,9 hPa 0,0 l/m 0 min 2 min 0 W/m 16,1 km/h (3 Bft) 100,00 %
20.10.2020 23:48 12,0 C 10,6 C 10,0 C 97 % 1009,0 hPa 0,0 l/m 0 min 2 min 0 W/m 12,9 km/h (3 Bft) 98,11 %
20.10.2020 23:50 12,0 C 10,6 C 10,0 C 97 % 1009,0 hPa 0,0 l/m 0 min 2 min 0 W/m 12,9 km/h (3 Bft) 100,00 %
20.10.2020 23:52 12,0 C 10,6 C 10,0 C 97 % 1009,0 hPa 0,0 l/m 0 min 2 min 0 W/m 3,2 km/h (1 Bft) 100,00 %
20.10.2020 23:54 12,0 C 10,6 C 10,0 C 97 % 1009,0 hPa 0,0 l/m 0 min 2 min 0 W/m 3,2 km/h (1 Bft) 100,00 %
20.10.2020 23:56 12,0 C 10,6 C 10,0 C 97 % 1008,9 hPa 0,0 l/m 0 min 2 min 0 W/m 12,9 km/h (3 Bft) 100,00 %
20.10.2020 23:58 12,0 C 10,6 C 10,0 C 97 % 1008,9 hPa 0,0 l/m 0 min 2 min 0 W/m 19,3 km/h (3 Bft) 100,00 %
_ Min-Zeit 00:00 00:00 01:56 04:02 22:24 - - - - 17:44 21:02
Minimum _ 7,9 C 7,2 C 5,6 C 82 % 1008,8 hPa - - - - 0,0 km/h (0 Bft) 39,39 %
_ Max-Zeit 15:24 15:04 15:02 19:58 00:00 14:10 09:56 10:54 10:10 03:40 01:12
Maximum _ 13,0 C 12,8 C 11,1 C 98 % 1015,4 hPa 0,2 l/m 2 min 2 min 231 W/m 51,5 km/h
O-SO (7 Bft)
100,00 %
Durchschnitt _ 10,5 C 9,7 C 8,4 C 90 % 1010,7 hPa #1,6 l/m #18 min. #5:10 h 61 W/m 18,3 km/h (3 Bft) 97,29 %
© 2020 W. Hausmann